FW3681 Weather Reports


Display with metric or nautical units.
time (UTC)temp
F
wind
direction
speed
MPH
gust
MPH
rain 1hr
in
rain 24hr
in
rain mn
in
humidity
%
barometer
mb
20260831011159 83 335 3.0 5.0 0.00 0.00 0.00 70 1017.6
20260831011058 83 300 1.0 5.0 0.00 0.00 0.00 70 1017.6
20260831010901 83 69 1.0 5.0 0.00 0.00 0.00 70 1017.5
20260831010658 83 6 4.0 5.0 0.00 0.00 0.00 70 1017.6
20260831010559 83 11 1.0 5.0 0.00 0.00 0.00 70 1017.5
20260831010502 83 300 0.0 6.0 0.00 0.00 0.00 70 1017.6
20260831010258 83 345 3.0 6.0 0.00 0.00 0.00 70 1017.6
20260831010200 83 286 0.0 6.0 0.00 0.00 0.00 70 1017.5
20260831010008 83 43 3.0 6.0 0.00 0.00 0.00 70 1017.4
20260831005858 83 311 2.0 6.0 0.00 0.00 0.00 70 1017.4
20260831005758 83 165 2.0 6.0 0.00 0.00 0.00 70 1017.4
20260831005659 83 81 1.0 6.0 0.00 0.00 0.00 70 1017.3
20260831005501 83 314 3.0 6.0 0.00 0.00 0.00 70 1017.5
20260831005359 83 301 1.0 6.0 0.00 0.00 0.00 70 1017.5
20260831005258 84 285 0.0 6.0 0.00 0.00 0.00 70 1017.5
20260831005100 84 295 2.0 6.0 0.00 0.00 0.00 69 1017.5
20260831005004 84 29 2.0 6.0 0.00 0.00 0.00 69 1017.5
20260831004858 84 326 0.0 6.0 0.00 0.00 0.00 70 1017.5
20260831004800 84 326 0.0 5.0 0.00 0.00 0.00 69 1017.5
20260831004659 84 348 1.0 5.0 0.00 0.00 0.00 69 1017.5
20260831004558 84 123 2.0 5.0 0.00 0.00 0.00 69 1017.5
20260831004500 84 22 3.0 5.0 0.00 0.00 0.00 69 1017.4
20260831004358 84 331 2.0 5.0 0.00 0.00 0.00 69 1017.4
20260831004259 84 333 2.0 5.0 0.00 0.00 0.00 69 1017.4
20260831004159 84 18 2.0 5.0 0.00 0.00 0.00 69 1017.4
20260831004059 84 1 4.0 6.0 0.00 0.00 0.00 69 1017.4
20260831003859 84 8 1.0 6.0 0.00 0.00 0.00 69 1017.4
20260831003800 84 15 1.0 6.0 0.00 0.00 0.00 69 1017.4
20260831003600 84 328 0.0 6.0 0.00 0.00 0.00 69 1017.3
20260831003459 84 316 0.0 6.0 0.00 0.00 0.00 69 1017.3
20260831003400 84 324 1.0 7.0 0.00 0.00 0.00 69 1017.3
20260831003159 84 64 1.0 7.0 0.00 0.00 0.00 69 1017.3
20260831003100 84 46 1.0 7.0 0.00 0.00 0.00 69 1017.4
20260831002858 84 34 0.0 7.0 0.00 0.00 0.00 69 1017.4
20260831002800 85 349 1.0 7.0 0.00 0.00 0.00 69 1017.4
20260831002659 85 331 0.0 7.0 0.00 0.00 0.00 69 1017.4
20260831002600 85 350 0.0 7.0 0.00 0.00 0.00 69 1017.4
20260831002259 85 13 3.0 4.0 0.00 0.00 0.00 70 1017.5
20260831002158 85 338 2.0 4.0 0.00 0.00 0.00 70 1017.4
20260831002058 85 160 0.0 4.0 0.00 0.00 0.00 70 1017.4
20260831002004 85 360 2.0 3.0 0.00 0.00 0.00 70 1017.4
20260831001858 85 15 0.0 3.0 0.00 0.00 0.00 70 1017.3
20260831001800 85 345 1.0 3.0 0.00 0.00 0.00 70 1017.3
20260831001658 85 160 1.0 3.0 0.00 0.00 0.00 70 1017.3
20260831001558 85 290 0.0 3.0 0.00 0.00 0.00 70 1017.3
20260831001500 85 333 0.0 3.0 0.00 0.00 0.00 70 1017.3
20260831001358 85 326 1.0 3.0 0.00 0.00 0.00 70 1017.4
20260831001258 85 340 0.0 3.0 0.00 0.00 0.00 70 1017.3
20260831001158 85 352 1.0 2.0 0.00 0.00 0.00 69 1017.3
20260831001059 85 316 0.0 2.0 0.00 0.00 0.00 69 1017.2
20260831001001 85 330 2.0 2.0 0.00 0.00 0.00 69 1017.2
20260831000858 85 356 0.0 2.0 0.00 0.00 0.00 69 1017.3
20260831000759 85 165 0.0 2.0 0.00 0.00 0.00 69 1017.2
20260831000658 85 328 0.0 2.0 0.00 0.00 0.00 69 1017.3
20260831000557 85 309 0.0 2.0 0.00 0.00 0.00 69 1017.3
20260831000358 85 57 0.0 2.0 0.00 0.00 0.00 69 1017.3
20260831000258 85 319 0.0 2.0 0.00 0.00 0.00 69 1017.3
20260831000204 85 314 0.0 2.0 0.00 0.00 0.00 69 1017.2
20260831000058 85 316 0.0 2.0 0.00 0.00 0.00 69 1017.1
20260830235859 85 167 0.0 2.0 0.00 0.00 0.00 68 1017.1
20260830235759 85 288 0.0 2.0 0.00 0.00 0.00 68 1017.1
20260830235658 85 323 0.0 3.0 0.00 0.00 0.00 68 1017.1
20260830235557 85 300 0.0 3.0 0.00 0.00 0.00 68 1017.1
20260830235502 85 239 0.0 3.0 0.00 0.00 0.00 68 1017.1
20260830235358 85 308 0.0 3.0 0.00 0.00 0.00 68 1017.1
20260830235259 85 300 0.0 3.0 0.00 0.00 0.00 68 1017.1
20260830235158 85 297 0.0 3.0 0.00 0.00 0.00 68 1017.1
20260830235059 85 302 0.0 3.0 0.00 0.00 0.00 68 1017.0
20260830235004 86 334 1.0 4.0 0.00 0.00 0.00 68 1017.0
20260830234859 86 312 0.0 4.0 0.00 0.00 0.00 68 1017.1
20260830234758 86 333 1.0 4.0 0.00 0.00 0.00 68 1017.1
20260830234658 86 323 0.0 4.0 0.00 0.00 0.00 68 1016.9
20260830234559 86 333 0.0 4.0 0.00 0.00 0.00 68 1017.0
20260830234459 86 328 1.0 4.0 0.00 0.00 0.00 67 1017.0
20260830234359 86 328 0.0 4.0 0.00 0.00 0.00 67 1017.0
20260830234257 86 321 0.0 4.0 0.00 0.00 0.00 67 1016.9
20260830234159 86 327 0.0 4.0 0.00 0.00 0.00 67 1016.9
20260830233900 86 347 0.0 3.0 0.00 0.00 0.00 67 1016.9
20260830233800 86 307 0.0 3.0 0.00 0.00 0.00 67 1016.8
20260830233700 86 333 0.0 3.0 0.00 0.00 0.00 67 1016.8
20260830233400 86 296 0.0 3.0 0.00 0.00 0.00 66 1016.8
20260830233200 86 302 1.0 3.0 0.00 0.00 0.00 66 1016.8
20260830233100 86 321 0.0 3.0 0.00 0.00 0.00 66 1016.8
20260830233004 86 317 2.0 3.0 0.00 0.00 0.00 66 1016.8
20260830232858 86 338 0.0 3.0 0.00 0.00 0.00 66 1016.8
20260830232759 86 333 0.0 3.0 0.00 0.00 0.00 66 1016.9
20260830232659 86 328 0.0 3.0 0.00 0.00 0.00 65 1016.7
20260830232500 86 315 2.0 4.0 0.00 0.00 0.00 65 1016.7
20260830232358 86 143 0.0 4.0 0.00 0.00 0.00 66 1016.7
20260830232159 87 321 2.0 4.0 0.00 0.00 0.00 66 1016.7
20260830231859 87 320 2.0 4.0 0.00 0.00 0.00 65 1016.6
20260830231759 87 319 0.0 4.0 0.00 0.00 0.00 65 1016.7
20260830231659 87 8 2.0 4.0 0.00 0.00 0.00 65 1016.6
20260830231559 87 6 3.0 4.0 0.00 0.00 0.00 65 1016.6
20260830231500 87 347 1.0 4.0 0.00 0.00 0.00 65 1016.6
20260830231300 87 47 0.0 3.0 0.00 0.00 0.00 65 1016.6
20260830231159 87 3 0.0 3.0 0.00 0.00 0.00 64 1016.6
20260830231102 87 287 2.0 3.0 0.00 0.00 0.00 64 1016.6
20260830231004 87 105 0.0 3.0 0.00 0.00 0.00 64 1016.7
20260830230758 87 76 2.0 6.0 0.00 0.00 0.00 64 1016.5
20260830230659 87 221 0.0 6.0 0.00 0.00 0.00 64 1016.6
20260830230558 87 30 2.0 6.0 0.00 0.00 0.00 64 1016.6
20260830230358 87 28 2.0 6.0 0.00 0.00 0.00 63 1016.6
20260830230259 87 76 2.0 7.0 0.00 0.00 0.00 63 1016.7
20260830230158 87 116 3.0 7.0 0.00 0.00 0.00 63 1016.6
20260830230058 87 20 2.0 7.0 0.00 0.00 0.00 63 1016.6
20260830230008 87 13 2.0 7.0 0.00 0.00 0.00 63 1016.6
20260830225858 87 127 3.0 7.0 0.00 0.00 0.00 63 1016.6
20260830225759 87 156 0.0 7.0 0.00 0.00 0.00 63 1016.7
20260830225657 87 1 1.0 7.0 0.00 0.00 0.00 64 1016.6
20260830225501 87 50 2.0 7.0 0.00 0.00 0.00 63 1016.7
20260830225359 87 6 0.0 3.0 0.00 0.00 0.00 63 1016.6
20260830225300 87 44 1.0 3.0 0.00 0.00 0.00 63 1016.6
20260830225158 87 134 0.0 3.0 0.00 0.00 0.00 64 1016.6
20260830225057 87 287 0.0 3.0 0.00 0.00 0.00 64 1016.7
20260830225004 87 255 0.0 5.0 0.00 0.00 0.00 64 1016.5
20260830224759 87 46 2.0 5.0 0.00 0.00 0.00 64 1016.6
20260830224659 88 331 2.0 5.0 0.00 0.00 0.00 63 1016.6
20260830224600 88 136 0.0 5.0 0.00 0.00 0.00 64 1016.5
20260830224501 88 334 2.0 5.0 0.00 0.00 0.00 63 1016.4
20260830224258 88 90 0.0 5.0 0.00 0.00 0.00 63 1016.5
20260830224159 88 331 0.0 5.0 0.00 0.00 0.00 63 1016.5
20260830224058 88 338 3.0 5.0 0.00 0.00 0.00 63 1016.5
20260830224004 88 19 2.0 5.0 0.00 0.00 0.00 63 1016.4
20260830223901 88 18 1.0 5.0 0.00 0.00 0.00 64 1016.5
20260830223759 88 319 2.0 5.0 0.00 0.00 0.00 63 1016.4
20260830223658 88 27 0.0 5.0 0.00 0.00 0.00 63 1016.5
20260830223500 88 10 2.0 5.0 0.00 0.00 0.00 63 1016.4
20260830223358 88 6 1.0 4.0 0.00 0.00 0.00 63 1016.5
20260830223058 88 340 2.0 6.0 0.00 0.00 0.00 63 1016.6
20260830222858 88 104 3.0 6.0 0.00 0.00 0.00 62 1016.5
20260830222558 88 329 2.0 6.0 0.00 0.00 0.00 62 1016.4
20260830222500 88 321 2.0 6.0 0.00 0.00 0.00 62 1016.4
20260830222358 88 33 2.0 6.0 0.00 0.00 0.00 62 1016.4
20260830222258 88 40 2.0 4.0 0.00 0.00 0.00 62 1016.5
20260830222158 88 343 2.0 4.0 0.00 0.00 0.00 62 1016.4
20260830222059 88 127 3.0 4.0 0.00 0.00 0.00 62 1016.4
20260830222004 88 359 2.0 4.0 0.00 0.00 0.00 62 1016.5
20260830221858 88 259 2.0 4.0 0.00 0.00 0.00 62 1016.5
20260830221758 88 348 3.0 4.0 0.00 0.00 0.00 62 1016.4
20260830221658 88 323 2.0 4.0 0.00 0.00 0.00 61 1016.4
20260830221503 88 79 0.0 5.0 0.00 0.00 0.00 61 1016.5
20260830221358 88 357 0.0 5.0 0.00 0.00 0.00 61 1016.5
20260830220859 89 311 2.0 5.0 0.00 0.00 0.00 60 1016.5
20260830220758 89 24 3.0 6.0 0.00 0.00 0.00 60 1016.5
20260830220659 89 17 4.0 6.0 0.00 0.00 0.00 60 1016.5
20260830220558 89 349 3.0 6.0 0.00 0.00 0.00 61 1016.5
20260830220500 89 15 0.0 6.0 0.00 0.00 0.00 62 1016.5
20260830220358 89 331 2.0 6.0 0.00 0.00 0.00 62 1016.5
20260830220300 89 308 0.0 6.0 0.00 0.00 0.00 62 1016.5
20260830220159 89 1 1.0 6.0 0.00 0.00 0.00 62 1016.5
20260830220059 89 17 1.0 6.0 0.00 0.00 0.00 62 1016.6
20260830220004 89 23 0.0 6.0 0.00 0.00 0.00 62 1016.5
20260830215858 89 24 5.0 5.0 0.00 0.00 0.00 61 1016.6
20260830215759 89 15 1.0 5.0 0.00 0.00 0.00 61 1016.6
20260830215659 89 326 4.0 5.0 0.00 0.00 0.00 61 1016.5
20260830215558 89 33 0.0 4.0 0.00 0.00 0.00 61 1016.5
20260830215503 89 4 2.0 4.0 0.00 0.00 0.00 62 1016.5
20260830215359 89 317 1.0 4.0 0.00 0.00 0.00 62 1016.5
20260830215259 89 82 2.0 4.0 0.00 0.00 0.00 62 1016.5
20260830215158 89 17 2.0 4.0 0.00 0.00 0.00 62 1016.5
20260830215058 89 342 3.0 4.0 0.00 0.00 0.00 62 1016.5
20260830215004 88 345 0.0 4.0 0.00 0.00 0.00 62 1016.5
20260830214759 89 6 2.0 5.0 0.00 0.00 0.00 61 1016.5
20260830214659 89 125 2.0 5.0 0.00 0.00 0.00 62 1016.5
20260830214558 89 6 3.0 5.0 0.00 0.00 0.00 62 1016.6
20260830214359 89 79 2.0 5.0 0.00 0.00 0.00 61 1016.6
20260830214300 89 286 0.0 5.0 0.00 0.00 0.00 61 1016.6
20260830214200 89 15 1.0 5.0 0.00 0.00 0.00 61 1016.6
20260830214058 89 64 1.0 5.0 0.00 0.00 0.00 62 1016.7
20260830214003 89 6 1.0 5.0 0.00 0.00 0.00 61 1016.6
20260830213859 89 109 1.0 5.0 0.00 0.00 0.00 61 1016.6
20260830213758 89 134 0.0 5.0 0.00 0.00 0.00 61 1016.6
20260830213659 89 37 1.0 5.0 0.00 0.00 0.00 61 1016.7
20260830213558 89 112 1.0 5.0 0.00 0.00 0.00 60 1016.6
20260830213500 89 313 1.0 5.0 0.00 0.00 0.00 60 1016.6
20260830213358 89 341 2.0 5.0 0.00 0.00 0.00 59 1016.6
20260830213258 89 98 5.0 5.0 0.00 0.00 0.00 60 1016.7
20260830213058 90 83 3.0 5.0 0.00 0.00 0.00 59 1016.7
20260830213005 90 141 4.0 5.0 0.00 0.00 0.00 59 1016.6
20260830212858 90 304 2.0 5.0 0.00 0.00 0.00 59 1016.7
20260830212758 90 332 0.0 5.0 0.00 0.00 0.00 61 1016.6
20260830212657 90 354 3.0 5.0 0.00 0.00 0.00 60 1016.7
20260830212558 90 57 0.0 5.0 0.00 0.00 0.00 60 1016.6
20260830212502 90 1 2.0 5.0 0.00 0.00 0.00 60 1016.7
20260830212158 90 1 3.0 5.0 0.00 0.00 0.00 61 1016.8
20260830212058 90 293 1.0 5.0 0.00 0.00 0.00 61 1016.7
20260830212004 89 305 3.0 5.0 0.00 0.00 0.00 61 1016.7
20260830211858 89 303 2.0 6.0 0.00 0.00 0.00 62 1016.7
20260830211759 89 32 1.0 6.0 0.00 0.00 0.00 62 1016.8
20260830211658 89 60 2.0 6.0 0.00 0.00 0.00 62 1016.7
20260830211558 89 77 4.0 6.0 0.00 0.00 0.00 62 1016.8
20260830211459 89 22 1.0 6.0 0.00 0.00 0.00 62 1016.7
20260830211401 89 29 1.0 6.0 0.00 0.00 0.00 62 1016.7
20260830211258 89 352 0.0 6.0 0.00 0.00 0.00 62 1016.8
20260830211158 89 112 0.0 6.0 0.00 0.00 0.00 62 1016.8
20260830211059 89 18 4.0 6.0 0.00 0.00 0.00 61 1016.8
20260830211004 90 352 1.0 5.0 0.00 0.00 0.00 61 1016.8
20260830210758 90 323 0.0 5.0 0.00 0.00 0.00 61 1016.8
20260830210700 90 27 4.0 5.0 0.00 0.00 0.00 61 1016.9
20260830210559 90 3 4.0 5.0 0.00 0.00 0.00 62 1016.8
20260830210358 90 20 1.0 5.0 0.00 0.00 0.00 60 1016.8
20260830210258 90 81 2.0 5.0 0.00 0.00 0.00 61 1016.9
20260830210158 90 13 3.0 5.0 0.00 0.00 0.00 61 1016.9
20260830210059 90 354 3.0 5.0 0.00 0.00 0.00 61 1016.8
20260830210005 89 5 3.0 5.0 0.00 0.00 0.00 61 1016.8
20260830205859 89 10 1.0 5.0 0.00 0.00 0.00 61 1016.9
20260830205758 89 34 1.0 5.0 0.00 0.00 0.00 60 1016.8
20260830205657 89 6 2.0 5.0 0.00 0.00 0.00 59 1016.8
20260830205500 89 355 3.0 6.0 0.00 0.00 0.00 60 1016.9
20260830205258 90 1 3.0 6.0 0.00 0.00 0.00 60 1017.0
20260830205159 90 112 2.0 6.0 0.00 0.00 0.00 60 1017.0
20260830205001 90 82 0.0 7.0 0.00 0.00 0.00 60 1017.0
20260830204858 90 8 4.0 7.0 0.00 0.00 0.00 59 1017.0
20260830204758 91 15 3.0 7.0 0.00 0.00 0.00 60 1016.9
20260830204659 91 12 3.0 7.0 0.00 0.00 0.00 60 1016.9
20260830204558 90 5 4.0 7.0 0.00 0.00 0.00 60 1016.9
20260830204501 90 343 3.0 7.0 0.00 0.00 0.00 59 1016.9
20260830204158 90 13 2.0 6.0 0.00 0.00 0.00 59 1016.9
20260830204059 90 1 4.0 6.0 0.00 0.00 0.00 59 1016.9
20260830204004 90 6 3.0 6.0 0.00 0.00 0.00 60 1017.0
20260830203759 90 1 4.0 6.0 0.00 0.00 0.00 60 1017.0
20260830203659 90 352 5.0 7.0 0.00 0.00 0.00 61 1017.0
20260830203559 90 360 3.0 7.0 0.00 0.00 0.00 62 1017.0
20260830203459 90 359 3.0 7.0 0.00 0.00 0.00 62 1017.0
20260830203159 89 1 3.0 7.0 0.00 0.00 0.00 62 1017.0
20260830203059 89 17 3.0 7.0 0.00 0.00 0.00 61 1017.0
20260830203004 89 117 3.0 7.0 0.00 0.00 0.00 61 1017.1
20260830202859 90 41 3.0 7.0 0.00 0.00 0.00 60 1017.1
20260830202759 90 10 5.0 7.0 0.00 0.00 0.00 61 1017.1
20260830202658 90 49 2.0 7.0 0.00 0.00 0.00 62 1017.2
20260830202500 90 10 4.0 7.0 0.00 0.00 0.00 61 1017.1
20260830202358 90 8 5.0 7.0 0.00 0.00 0.00 61 1017.1
20260830202258 90 13 5.0 6.0 0.00 0.00 0.00 61 1017.1
20260830202159 90 27 3.0 6.0 0.00 0.00 0.00 61 1017.1
20260830202004 90 44 1.0 6.0 0.00 0.00 0.00 61 1017.1
20260830201858 90 6 4.0 8.0 0.00 0.00 0.00 61 1017.1
20260830201759 90 352 2.0 8.0 0.00 0.00 0.00 61 1017.2
20260830201657 90 354 4.0 8.0 0.00 0.00 0.00 61 1017.2
20260830201557 90 39 1.0 8.0 0.00 0.00 0.00 61 1017.2
20260830201501 90 305 0.0 8.0 0.00 0.00 0.00 61 1017.1
20260830201357 90 102 4.0 8.0 0.00 0.00 0.00 62 1017.2
20260830201259 90 4 3.0 8.0 0.00 0.00 0.00 61 1017.2
20260830201159 90 58 0.0 8.0 0.00 0.00 0.00 61 1017.1
20260830201058 90 4 5.0 8.0 0.00 0.00 0.00 61 1017.1
20260830201004 90 31 6.0 8.0 0.00 0.00 0.00 61 1017.1
20260830200859 90 104 5.0 6.0 0.00 0.00 0.00 61 1017.1
20260830200657 90 4 3.0 6.0 0.00 0.00 0.00 61 1017.2
20260830200558 90 15 3.0 6.0 0.00 0.00 0.00 62 1017.1
20260830200500 90 336 2.0 6.0 0.00 0.00 0.00 62 1017.3
20260830200358 90 34 1.0 6.0 0.00 0.00 0.00 61 1017.3
20260830200258 90 12 3.0 4.0 0.00 0.00 0.00 62 1017.2
20260830200158 90 15 0.0 4.0 0.00 0.00 0.00 61 1017.3
20260830200057 90 94 0.0 4.0 0.00 0.00 0.00 62 1017.3
20260830200005 90 61 0.0 5.0 0.00 0.00 0.00 61 1017.3
20260830195858 90 355 2.0 7.0 0.00 0.00 0.00 61 1017.3
20260830195757 90 329 2.0 7.0 0.00 0.00 0.00 61 1017.3
20260830195658 90 76 0.0 7.0 0.00 0.00 0.00 61 1017.3
20260830195558 90 4 3.0 7.0 0.00 0.00 0.00 60 1017.4
20260830195359 90 117 1.0 7.0 0.00 0.00 0.00 60 1017.3
20260830195258 90 360 0.0 7.0 0.00 0.00 0.00 59 1017.4
20260830195158 90 49 3.0 7.0 0.00 0.00 0.00 58 1017.4
20260830195059 90 20 4.0 7.0 0.00 0.00 0.00 59 1017.4
20260830195002 90 345 3.0 6.0 0.00 0.00 0.00 59 1017.4
20260830194800 90 4 0.0 7.0 0.00 0.00 0.00 58 1017.4
20260830194659 90 360 5.0 7.0 0.00 0.00 0.00 58 1017.4
20260830194557 90 324 2.0 7.0 0.00 0.00 0.00 58 1017.4
20260830194459 91 6 4.0 7.0 0.00 0.00 0.00 58 1017.4
20260830194358 90 105 3.0 7.0 0.00 0.00 0.00 58 1017.5
20260830194258 90 39 3.0 7.0 0.00 0.00 0.00 58 1017.4
20260830194158 90 353 4.0 7.0 0.00 0.00 0.00 58 1017.4
20260830194058 90 358 3.0 8.0 0.00 0.00 0.00 57 1017.5
20260830194004 91 345 0.0 8.0 0.00 0.00 0.00 57 1017.4
20260830193858 91 39 2.0 8.0 0.00 0.00 0.00 57 1017.5
20260830193757 91 360 0.0 8.0 0.00 0.00 0.00 58 1017.5
20260830193659 91 88 2.0 8.0 0.00 0.00 0.00 58 1017.4
20260830193558 92 345 5.0 9.0 0.00 0.00 0.00 58 1017.4
20260830193459 92 6 4.0 9.0 0.00 0.00 0.00 57 1017.4
20260830193358 92 345 6.0 9.0 0.00 0.00 0.00 56 1017.5
20260830193258 92 8 6.0 9.0 0.00 0.00 0.00 56 1017.5
20260830193058 92 356 5.0 9.0 0.00 0.00 0.00 57 1017.5
20260830193003 92 337 6.0 9.0 0.00 0.00 0.00 56 1017.5
20260830192758 92 11 3.0 9.0 0.00 0.00 0.00 56 1017.5
20260830192658 93 13 6.0 8.0 0.00 0.00 0.00 57 1017.5
20260830192559 93 4 2.0 8.0 0.00 0.00 0.00 57 1017.6
20260830192500 93 269 4.0 8.0 0.00 0.00 0.00 58 1017.6
20260830192258 93 127 7.0 8.0 0.00 0.00 0.00 57 1017.6
20260830192157 93 344 5.0 8.0 0.00 0.00 0.00 57 1017.6
20260830192058 93 5 5.0 8.0 0.00 0.00 0.00 57 1017.7
20260830192004 93 20 7.0 8.0 0.00 0.00 0.00 56 1017.7
20260830191857 93 342 3.0 8.0 0.00 0.00 0.00 57 1017.7
20260830191759 93 6 8.0 8.0 0.00 0.00 0.00 57 1017.7
20260830191558 92 344 4.0 8.0 0.00 0.00 0.00 56 1017.8
20260830191459 93 31 1.0 8.0 0.00 0.00 0.00 56 1017.8
20260830191358 93 359 3.0 8.0 0.00 0.00 0.00 55 1017.8
20260830191259 93 315 2.0 8.0 0.00 0.00 0.00 57 1017.8
20260830191159 92 306 4.0 8.0 0.00 0.00 0.00 56 1017.9
20260830191100 92 34 1.0 8.0 0.00 0.00 0.00 55 1017.9
20260830191001 92 64 5.0 8.0 0.00 0.00 0.00 55 1017.8
20260830190858 93 25 3.0 8.0 0.00 0.00 0.00 55 1017.9
20260830190758 92 41 8.0 8.0 0.00 0.00 0.00 55 1017.9
20260830190658 92 353 3.0 7.0 0.00 0.00 0.00 55 1017.9
20260830190459 93 294 2.0 7.0 0.00 0.00 0.00 59 1018.0
20260830190358 92 302 3.0 7.0 0.00 0.00 0.00 58 1017.9
20260830190258 93 328 4.0 7.0 0.00 0.00 0.00 57 1018.0
20260830190059 93 345 3.0 7.0 0.00 0.00 0.00 57 1018.0
20260830190003 93 339 4.0 7.0 0.00 0.00 0.00 57 1018.0
20260830185857 93 344 1.0 7.0 0.00 0.00 0.00 57 1018.0
20260830185656 92 360 5.0 7.0 0.00 0.00 0.00 58 1018.0
20260830185557 93 307 4.0 8.0 0.00 0.00 0.00 57 1018.0
20260830185500 93 19 4.0 8.0 0.00 0.00 0.00 58 1018.0
20260830185356 92 13 3.0 8.0 0.00 0.00 0.00 58 1018.0
20260830185257 92 17 2.0 8.0 0.00 0.00 0.00 57 1018.1
20260830185157 92 354 4.0 8.0 0.00 0.00 0.00 58 1018.1
20260830185059 92 288 3.0 8.0 0.00 0.00 0.00 57 1018.1
20260830185004 92 325 4.0 8.0 0.00 0.00 0.00 57 1018.1
20260830184859 92 342 4.0 8.0 0.00 0.00 0.00 58 1018.1
20260830184757 92 342 5.0 8.0 0.00 0.00 0.00 56 1018.1
20260830184656 92 6 5.0 8.0 0.00 0.00 0.00 58 1018.2
20260830184558 92 358 6.0 8.0 0.00 0.00 0.00 58 1018.1
20260830184457 93 4 6.0 7.0 0.00 0.00 0.00 58 1018.2
20260830184358 93 87 1.0 7.0 0.00 0.00 0.00 58 1018.2
20260830184157 92 345 5.0 7.0 0.00 0.00 0.00 59 1018.3
20260830184057 92 360 3.0 7.0 0.00 0.00 0.00 59 1018.2
20260830184002 92 349 5.0 7.0 0.00 0.00 0.00 60 1018.3
20260830183856 92 6 4.0 7.0 0.00 0.00 0.00 60 1018.3
20260830183756 91 338 3.0 7.0 0.00 0.00 0.00 59 1018.2
20260830183657 92 358 4.0 7.0 0.00 0.00 0.00 59 1018.3
20260830183557 92 52 3.0 7.0 0.00 0.00 0.00 58 1018.4
20260830183357 92 26 2.0 7.0 0.00 0.00 0.00 60 1018.3
20260830183256 92 310 4.0 6.0 0.00 0.00 0.00 60 1018.3
20260830183157 92 26 3.0 6.0 0.00 0.00 0.00 59 1018.3
20260830183000 92 15 5.0 6.0 0.00 0.00 0.00 60 1018.2
20260830182857 91 4 3.0 6.0 0.00 0.00 0.00 61 1018.3
20260830182757 91 355 5.0 6.0 0.00 0.00 0.00 61 1018.2
20260830182657 91 15 2.0 6.0 0.00 0.00 0.00 61 1018.2
20260830182558 91 15 3.0 6.0 0.00 0.00 0.00 62 1018.2
20260830182459 90 12 3.0 6.0 0.00 0.00 0.00 63 1018.2
20260830182256 89 4 2.0 5.0 0.00 0.00 0.00 62 1018.3
20260830182157 89 46 0.0 8.0 0.00 0.00 0.00 63 1018.3
20260830182000 89 23 2.0 8.0 0.00 0.00 0.00 62 1018.4
20260830181856 88 6 2.0 8.0 0.00 0.00 0.00 63 1018.4
20260830181756 88 342 3.0 8.0 0.00 0.00 0.00 63 1018.5
20260830181657 89 34 2.0 8.0 0.00 0.00 0.00 63 1018.5
20260830181556 89 15 2.0 8.0 0.00 0.00 0.00 63 1018.6
20260830181458 89 1 0.0 8.0 0.00 0.00 0.00 63 1018.5
20260830181357 89 26 3.0 8.0 0.00 0.00 0.00 62 1018.5
20260830181257 90 20 7.0 8.0 0.00 0.00 0.00 62 1018.5
20260830181157 90 8 6.0 8.0 0.00 0.00 0.00 61 1018.5
20260830181056 90 25 4.0 7.0 0.00 0.00 0.00 61 1018.5
20260830181000 90 12 6.0 7.0 0.00 0.00 0.00 61 1018.5
20260830180856 90 30 3.0 6.0 0.00 0.00 0.00 62 1018.5
20260830180757 90 13 6.0 6.0 0.00 0.00 0.00 62 1018.5
20260830180658 90 57 0.0 6.0 0.00 0.00 0.00 61 1018.4
20260830180556 90 360 4.0 6.0 0.00 0.00 0.00 62 1018.5
20260830180458 90 17 5.0 6.0 0.00 0.00 0.00 61 1018.6
20260830180357 90 315 0.0 6.0 0.00 0.00 0.00 62 1018.7
20260830180257 90 1 4.0 6.0 0.00 0.00 0.00 63 1018.7
20260830180157 89 8 2.0 6.0 0.00 0.00 0.00 63 1018.7
20260830180056 89 15 3.0 6.0 0.00 0.00 0.00 63 1018.7
20260830175959 89 3 4.0 6.0 0.00 0.00 0.00 61 1018.8
20260830175857 90 63 4.0 6.0 0.00 0.00 0.00 60 1018.7
20260830175757 90 20 6.0 6.0 0.00 0.00 0.00 61 1018.8
20260830175656 90 58 3.0 7.0 0.00 0.00 0.00 61 1018.9
20260830175557 90 33 3.0 7.0 0.00 0.00 0.00 60 1018.8
20260830175357 90 341 4.0 7.0 0.00 0.00 0.00 62 1018.9
20260830175257 89 331 2.0 7.0 0.00 0.00 0.00 62 1018.8
20260830175156 89 5 4.0 7.0 0.00 0.00 0.00 62 1018.9
20260830175057 89 6 2.0 7.0 0.00 0.00 0.00 63 1018.8
20260830174959 89 1 3.0 7.0 0.00 0.00 0.00 62 1018.8
20260830174657 89 12 4.0 6.0 0.00 0.00 0.00 62 1018.8
20260830174459 89 41 2.0 6.0 0.00 0.00 0.00 62 1018.8
20260830174356 90 13 5.0 6.0 0.00 0.00 0.00 62 1018.8
20260830174257 90 340 4.0 6.0 0.00 0.00 0.00 62 1018.8
20260830174157 89 15 4.0 6.0 0.00 0.00 0.00 61 1018.8
20260830174000 89 345 5.0 6.0 0.00 0.00 0.00 62 1018.9
20260830173857 89 24 6.0 6.0 0.00 0.00 0.00 63 1019.0
20260830173757 89 356 3.0 6.0 0.00 0.00 0.00 62 1019.0
20260830173658 89 350 5.0 6.0 0.00 0.00 0.00 62 1019.0
20260830173557 90 27 2.0 6.0 0.00 0.00 0.00 62 1018.9
20260830173458 90 6 2.0 6.0 0.00 0.00 0.00 61 1019.0
20260830173357 90 289 1.0 5.0 0.00 0.00 0.00 59 1019.0
20260830173257 91 69 0.0 6.0 0.00 0.00 0.00 59 1019.0
20260830173156 91 41 3.0 6.0 0.00 0.00 0.00 60 1019.0
20260830173057 91 15 3.0 6.0 0.00 0.00 0.00 60 1019.0
20260830172858 90 20 2.0 7.0 0.00 0.00 0.00 62 1018.9
20260830172757 89 263 1.0 7.0 0.00 0.00 0.00 61 1019.0
20260830172657 89 10 2.0 7.0 0.00 0.00 0.00 62 1019.0
20260830172557 88 66 0.0 7.0 0.00 0.00 0.00 62 1019.0
20260830172459 88 24 5.0 7.0 0.00 0.00 0.00 62 1019.0
20260830172357 89 40 3.0 7.0 0.00 0.00 0.00 61 1019.0
20260830172257 89 5 4.0 7.0 0.00 0.00 0.00 60 1019.0
20260830172157 89 131 2.0 7.0 0.00 0.00 0.00 60 1019.0
20260830172056 90 82 2.0 7.0 0.00 0.00 0.00 60 1019.0
20260830171959 90 360 5.0 7.0 0.00 0.00 0.00 60 1019.0
20260830171856 90 91 2.0 7.0 0.00 0.00 0.00 60 1019.0
20260830171656 90 347 3.0 7.0 0.00 0.00 0.00 60 1019.0
20260830171257 89 13 5.0 8.0 0.00 0.00 0.00 59 1019.0
20260830171057 90 343 3.0 8.0 0.00 0.00 0.00 60 1019.1
20260830171000 90 64 3.0 8.0 0.00 0.00 0.00 59 1019.2
20260830170856 90 8 3.0 8.0 0.00 0.00 0.00 58 1019.1
20260830170757 91 6 4.0 8.0 0.00 0.00 0.00 58 1019.2
20260830170657 91 327 3.0 8.0 0.00 0.00 0.00 58 1019.1
20260830170557 91 66 2.0 8.0 0.00 0.00 0.00 58 1019.1
20260830170458 91 360 3.0 7.0 0.00 0.00 0.00 59 1019.1
20260830170356 91 350 4.0 7.0 0.00 0.00 0.00 59 1019.2
20260830170256 90 24 5.0 7.0 0.00 0.00 0.00 59 1019.1
20260830170157 90 332 3.0 8.0 0.00 0.00 0.00 59 1019.1
20260830170057 90 352 5.0 8.0 0.00 0.00 0.00 58 1019.1
20260830170002 90 11 2.0 8.0 0.00 0.00 0.00 59 1019.1
20260830165859 90 33 3.0 8.0 0.00 0.00 0.00 61 1019.2
20260830165758 90 352 1.0 8.0 0.00 0.00 0.00 61 1019.2
20260830165658 90 340 4.0 8.0 0.00 0.00 0.00 61 1019.2
20260830165557 89 19 6.0 8.0 0.00 0.00 0.00 62 1019.2
20260830165459 90 314 3.0 8.0 0.00 0.00 0.00 61 1019.3
20260830165358 90 130 3.0 8.0 0.00 0.00 0.00 60 1019.3
20260830165258 90 341 3.0 6.0 0.00 0.00 0.00 61 1019.3
20260830165158 90 314 2.0 6.0 0.00 0.00 0.00 62 1019.4
20260830165058 89 351 4.0 6.0 0.00 0.00 0.00 61 1019.4
20260830165001 90 88 1.0 6.0 0.00 0.00 0.00 61 1019.5
20260830164858 89 1 5.0 6.0 0.00 0.00 0.00 61 1019.5
20260830164758 89 39 2.0 6.0 0.00 0.00 0.00 61 1019.5
20260830164658 89 13 3.0 6.0 0.00 0.00 0.00 61 1019.5
20260830164558 89 18 6.0 6.0 0.00 0.00 0.00 63 1019.6
20260830164459 88 359 5.0 6.0 0.00 0.00 0.00 63 1019.6
20260830164357 88 29 3.0 6.0 0.00 0.00 0.00 63 1019.6
20260830164258 88 357 4.0 6.0 0.00 0.00 0.00 62 1019.7
20260830164158 88 343 3.0 6.0 0.00 0.00 0.00 62 1019.7
20260830164059 89 354 2.0 6.0 0.00 0.00 0.00 62 1019.8
20260830164002 89 25 4.0 6.0 0.00 0.00 0.00 61 1019.8
20260830163857 89 357 3.0 6.0 0.00 0.00 0.00 62 1019.8
20260830163759 89 30 6.0 6.0 0.00 0.00 0.00 61 1019.8
20260830163558 89 359 6.0 6.0 0.00 0.00 0.00 63 1019.7
20260830163459 89 149 2.0 6.0 0.00 0.00 0.00 63 1019.7
20260830163359 89 17 5.0 7.0 0.00 0.00 0.00 63 1019.7
20260830163258 88 13 4.0 7.0 0.00 0.00 0.00 63 1019.8
20260830163158 89 343 3.0 7.0 0.00 0.00 0.00 62 1019.8
20260830163058 89 1 3.0 7.0 0.00 0.00 0.00 63 1019.8
20260830163002 89 34 4.0 7.0 0.00 0.00 0.00 63 1019.8
20260830162858 89 85 1.0 7.0 0.00 0.00 0.00 63 1019.8
20260830162759 89 36 3.0 7.0 0.00 0.00 0.00 62 1019.8
20260830162558 89 340 1.0 7.0 0.00 0.00 0.00 63 1019.8
20260830162458 89 20 7.0 7.0 0.00 0.00 0.00 64 1019.8
20260830162258 88 12 2.0 5.0 0.00 0.00 0.00 66 1019.8
20260830162159 87 313 2.0 5.0 0.00 0.00 0.00 66 1019.8
20260830162057 87 345 3.0 5.0 0.00 0.00 0.00 64 1019.9
20260830162001 87 79 4.0 5.0 0.00 0.00 0.00 65 1019.9
20260830161757 88 4 4.0 5.0 0.00 0.00 0.00 64 1019.9
20260830161658 88 353 5.0 6.0 0.00 0.00 0.00 66 1019.9
20260830161500 88 359 0.0 6.0 0.00 0.00 0.00 65 1019.9
20260830161358 88 301 2.0 7.0 0.00 0.00 0.00 65 1020.0
20260830161258 88 11 3.0 7.0 0.00 0.00 0.00 64 1020.0
20260830161158 89 360 4.0 7.0 0.00 0.00 0.00 64 1020.0
20260830160858 88 39 4.0 7.0 0.00 0.00 0.00 65 1019.9
20260830160758 88 357 4.0 7.0 0.00 0.00 0.00 65 1020.0
20260830160657 88 356 5.0 7.0 0.00 0.00 0.00 65 1019.9
20260830160558 88 6 4.0 7.0 0.00 0.00 0.00 65 1019.9
20260830160500 88 45 2.0 7.0 0.00 0.00 0.00 64 1019.9
20260830160158 88 39 4.0 5.0 0.00 0.00 0.00 66 1019.9
20260830160058 88 41 3.0 5.0 0.00 0.00 0.00 65 1019.9
20260830160004 88 84 2.0 5.0 0.00 0.00 0.00 65 1019.9
20260830155756 88 104 3.0 7.0 0.00 0.00 0.00 67 1019.9
20260830155657 88 27 3.0 7.0 0.00 0.00 0.00 67 1019.9
20260830155557 88 41 3.0 7.0 0.00 0.00 0.00 67 1019.9
20260830155458 87 15 4.0 7.0 0.00 0.00 0.00 67 1019.9
20260830155358 87 6 3.0 7.0 0.00 0.00 0.00 67 1019.9
20260830155256 87 91 0.0 7.0 0.00 0.00 0.00 66 1019.8
20260830155157 87 18 1.0 7.0 0.00 0.00 0.00 67 1020.0
20260830154959 87 1 3.0 7.0 0.00 0.00 0.00 67 1019.9
20260830154856 87 312 2.0 6.0 0.00 0.00 0.00 67 1019.9
20260830154756 87 12 1.0 5.0 0.00 0.00 0.00 67 1019.9
20260830154656 87 80 0.0 5.0 0.00 0.00 0.00 67 1019.9
20260830154557 87 41 2.0 5.0 0.00 0.00 0.00 67 1019.9
20260830154256 87 334 3.0 7.0 0.00 0.00 0.00 67 1019.9
20260830154158 87 11 4.0 7.0 0.00 0.00 0.00 68 1020.0
20260830154057 87 100 3.0 7.0 0.00 0.00 0.00 67 1019.9
20260830154004 87 56 1.0 7.0 0.00 0.00 0.00 67 1019.9
20260830153857 87 59 4.0 7.0 0.00 0.00 0.00 67 1020.0
20260830153758 87 321 3.0 7.0 0.00 0.00 0.00 67 1020.0
20260830153557 87 350 4.0 6.0 0.00 0.00 0.00 67 1019.8
20260830153458 87 71 2.0 6.0 0.00 0.00 0.00 68 1019.8
20260830153358 87 327 3.0 6.0 0.00 0.00 0.00 68 1019.8
20260830153257 87 336 3.0 7.0 0.00 0.00 0.00 68 1019.8
20260830153156 87 360 4.0 8.0 0.00 0.00 0.00 67 1019.9
20260830153057 87 39 4.0 8.0 0.00 0.00 0.00 67 1019.7
20260830153001 87 13 3.0 9.0 0.00 0.00 0.00 67 1019.8
20260830152859 87 103 3.0 9.0 0.00 0.00 0.00 66 1019.8
20260830152758 88 65 3.0 9.0 0.00 0.00 0.00 67 1019.8
20260830152657 88 356 5.0 9.0 0.00 0.00 0.00 66 1019.9
20260830152558 88 6 5.0 9.0 0.00 0.00 0.00 65 1019.8
20260830152359 88 335 4.0 9.0 0.00 0.00 0.00 67 1019.7
20260830152258 88 24 6.0 9.0 0.00 0.00 0.00 68 1019.7
20260830152158 87 8 5.0 9.0 0.00 0.00 0.00 69 1019.7
20260830152059 87 355 4.0 9.0 0.00 0.00 0.00 68 1019.7
20260830152004 87 353 3.0 6.0 0.00 0.00 0.00 69 1019.7
20260830151858 87 39 3.0 6.0 0.00 0.00 0.00 69 1019.7
20260830151758 87 19 2.0 6.0 0.00 0.00 0.00 69 1019.7
20260830151557 86 18 4.0 6.0 0.00 0.00 0.00 69 1019.6
20260830151359 86 359 2.0 6.0 0.00 0.00 0.00 69 1019.7
20260830151259 86 111 5.0 6.0 0.00 0.00 0.00 70 1019.6
20260830151157 86 117 2.0 6.0 0.00 0.00 0.00 70 1019.7
20260830151059 86 103 3.0 6.0 0.00 0.00 0.00 70 1019.6
20260830151000 86 347 0.0 5.0 0.00 0.00 0.00 70 1019.7
20260830150857 86 108 5.0 5.0 0.00 0.00 0.00 71 1019.7
20260830150759 86 334 3.0 5.0 0.00 0.00 0.00 71 1019.7
20260830150659 86 4 4.0 5.0 0.00 0.00 0.00 71 1019.6
20260830150557 86 106 3.0 6.0 0.00 0.00 0.00 72 1019.6
20260830150500 86 19 0.0 6.0 0.00 0.00 0.00 72 1019.6
20260830150257 85 347 1.0 6.0 0.00 0.00 0.00 72 1019.6
20260830150158 85 335 0.0 6.0 0.00 0.00 0.00 73 1019.6
20260830150058 85 360 3.0 6.0 0.00 0.00 0.00 73 1019.7
20260830145857 85 354 4.0 6.0 0.00 0.00 0.00 73 1019.7
20260830145757 85 103 2.0 6.0 0.00 0.00 0.00 73 1019.6
20260830145657 85 317 4.0 6.0 0.00 0.00 0.00 74 1019.7
20260830145556 85 347 3.0 5.0 0.00 0.00 0.00 73 1019.6
20260830145458 85 36 1.0 5.0 0.00 0.00 0.00 74 1019.7
20260830145357 85 354 3.0 5.0 0.00 0.00 0.00 74 1019.6
20260830145257 85 111 0.0 5.0 0.00 0.00 0.00 74 1019.6
20260830145157 85 354 4.0 5.0 0.00 0.00 0.00 74 1019.5
20260830145056 85 32 2.0 5.0 0.00 0.00 0.00 74 1019.6
20260830145000 85 360 3.0 5.0 0.00 0.00 0.00 74 1019.5
20260830144857 85 354 2.0 5.0 0.00 0.00 0.00 74 1019.5
20260830144757 85 350 3.0 5.0 0.00 0.00 0.00 75 1019.6
20260830144658 84 6 3.0 5.0 0.00 0.00 0.00 76 1019.6
20260830144557 84 4 3.0 5.0 0.00 0.00 0.00 75 1019.6
20260830144458 84 15 2.0 4.0 0.00 0.00 0.00 75 1019.6
20260830144358 84 25 3.0 5.0 0.00 0.00 0.00 76 1019.6
20260830144257 84 34 2.0 5.0 0.00 0.00 0.00 75 1019.6
20260830144156 84 79 2.0 5.0 0.00 0.00 0.00 76 1019.5
20260830144056 84 333 2.0 5.0 0.00 0.00 0.00 77 1019.6
20260830143959 83 6 3.0 5.0 0.00 0.00 0.00 76 1019.6
20260830143857 83 345 0.0 5.0 0.00 0.00 0.00 76 1019.6
20260830143756 83 345 3.0 5.0 0.00 0.00 0.00 77 1019.7
20260830143657 83 340 2.0 5.0 0.00 0.00 0.00 77 1019.6
20260830143558 83 345 4.0 5.0 0.00 0.00 0.00 76 1019.7
20260830143458 83 129 3.0 4.0 0.00 0.00 0.00 76 1019.6
20260830143357 83 11 1.0 4.0 0.00 0.00 0.00 77 1019.7
20260830143256 83 331 2.0 4.0 0.00 0.00 0.00 76 1019.7
20260830143058 83 20 1.0 6.0 0.00 0.00 0.00 77 1019.7
20260830142959 82 345 3.0 6.0 0.00 0.00 0.00 77 1019.7
20260830142857 83 10 4.0 6.0 0.00 0.00 0.00 76 1019.7
20260830142756 83 297 0.0 6.0 0.00 0.00 0.00 76 1019.7
20260830142657 83 89 4.0 6.0 0.00 0.00 0.00 76 1019.7
20260830142556 83 46 0.0 6.0 0.00 0.00 0.00 76 1019.7
20260830142459 83 328 2.0 6.0 0.00 0.00 0.00 76 1019.7
20260830142258 83 3 5.0 5.0 0.00 0.00 0.00 77 1019.8
20260830142157 83 15 4.0 5.0 0.00 0.00 0.00 76 1019.7
20260830142000 83 355 3.0 4.0 0.00 0.00 0.00 76 1019.7
20260830141857 83 359 3.0 4.0 0.00 0.00 0.00 77 1019.8
20260830141757 83 323 2.0 4.0 0.00 0.00 0.00 77 1019.7
20260830141656 82 338 3.0 4.0 0.00 0.00 0.00 78 1019.7
20260830141556 82 43 1.0 4.0 0.00 0.00 0.00 79 1019.8
20260830141458 82 15 4.0 4.0 0.00 0.00 0.00 78 1019.7
20260830141257 81 342 2.0 4.0 0.00 0.00 0.00 79 1019.7
20260830141157 81 347 2.0 4.0 0.00 0.00 0.00 78 1019.7
20260830141057 81 352 2.0 4.0 0.00 0.00 0.00 78 1019.7
20260830140958 81 354 2.0 4.0 0.00 0.00 0.00 78 1019.7
20260830140857 81 311 0.0 4.0 0.00 0.00 0.00 78 1019.7
20260830140757 81 345 3.0 4.0 0.00 0.00 0.00 78 1019.7
20260830140657 81 1 1.0 4.0 0.00 0.00 0.00 78 1019.7
20260830140557 81 359 2.0 4.0 0.00 0.00 0.00 78 1019.7
20260830140157 81 103 1.0 4.0 0.00 0.00 0.00 79 1019.7
20260830140056 80 359 0.0 3.0 0.00 0.00 0.00 79 1019.7
20260830140002 80 328 0.0 3.0 0.00 0.00 0.00 79 1019.7
20260830135858 80 322 0.0 3.0 0.00 0.00 0.00 79 1019.7
20260830135757 80 341 0.0 3.0 0.00 0.00 0.00 79 1019.7
20260830135659 80 15 0.0 3.0 0.00 0.00 0.00 79 1019.7
20260830135559 80 352 1.0 3.0 0.00 0.00 0.00 79 1019.8
20260830135459 80 340 2.0 3.0 0.00 0.00 0.00 79 1019.8
20260830135358 80 4 2.0 4.0 0.00 0.00 0.00 79 1019.7
20260830135257 80 338 2.0 4.0 0.00 0.00 0.00 79 1019.8
20260830135159 80 268 0.0 4.0 0.00 0.00 0.00 80 1019.8
20260830135000 79 322 1.0 4.0 0.00 0.00 0.00 80 1019.8
20260830134758 79 334 2.0 4.0 0.00 0.00 0.00 80 1019.8
20260830134558 79 343 3.0 4.0 0.00 0.00 0.00 80 1019.8
20260830134459 80 326 1.0 4.0 0.00 0.00 0.00 80 1019.8
20260830134357 80 314 1.0 3.0 0.00 0.00 0.00 80 1019.8
20260830134158 80 340 0.0 3.0 0.00 0.00 0.00 80 1019.9
20260830134059 79 6 0.0 3.0 0.00 0.00 0.00 80 1019.8
20260830134001 79 11 2.0 3.0 0.00 0.00 0.00 81 1019.7
20260830133857 79 309 1.0 3.0 0.00 0.00 0.00 81 1019.7
20260830133800 79 289 0.0 3.0 0.00 0.00 0.00 80 1019.7
20260830133658 79 306 2.0 3.0 0.00 0.00 0.00 80 1019.7
20260830133557 79 282 1.0 3.0 0.00 0.00 0.00 80 1019.8
20260830133459 79 316 3.0 3.0 0.00 0.00 0.00 80 1019.8
20260830133358 79 326 2.0 3.0 0.00 0.00 0.00 80 1019.8
20260830133157 79 231 1.0 3.0 0.00 0.00 0.00 80 1019.7
20260830133059 79 341 1.0 3.0 0.00 0.00 0.00 80 1019.7
20260830132959 79 8 1.0 3.0 0.00 0.00 0.00 80 1019.7
20260830132858 79 350 2.0 3.0 0.00 0.00 0.00 80 1019.7
20260830132758 79 321 0.0 3.0 0.00 0.00 0.00 81 1019.7
20260830132659 79 317 0.0 3.0 0.00 0.00 0.00 80 1019.7
20260830132459 79 292 1.0 3.0 0.00 0.00 0.00 80 1019.6
20260830132358 79 286 0.0 3.0 0.00 0.00 0.00 80 1019.6
20260830132258 79 8 0.0 3.0 0.00 0.00 0.00 80 1019.6
20260830132003 79 281 1.0 3.0 0.00 0.00 0.00 80 1019.6
20260830131857 79 333 0.0 3.0 0.00 0.00 0.00 80 1019.6
20260830131758 79 341 0.0 3.0 0.00 0.00 0.00 80 1019.6
20260830131557 79 304 3.0 4.0 0.00 0.00 0.00 80 1019.6
20260830131459 80 359 1.0 4.0 0.00 0.00 0.00 79 1019.6
20260830131258 79 322 0.0 4.0 0.00 0.00 0.00 80 1019.6
20260830131158 79 345 0.0 4.0 0.00 0.00 0.00 80 1019.5
20260830131057 79 347 0.0 4.0 0.00 0.00 0.00 80 1019.5
20260830131002 79 162 1.0 4.0 0.00 0.00 0.00 80 1019.6
20260830130858 79 360 3.0 4.0 0.00 0.00 0.00 80 1019.5
20260830130658 79 155 0.0 3.0 0.00 0.00 0.00 80 1019.6
20260830130558 79 181 1.0 3.0 0.00 0.00 0.00 81 1019.6
20260830130459 79 6 0.0 3.0 0.00 0.00 0.00 81 1019.5
20260830130357 79 143 0.0 3.0 0.00 0.00 0.00 81 1019.6
20260830130259 78 205 0.0 3.0 0.00 0.00 0.00 82 1019.6
20260830130157 78 205 1.0 3.0 0.00 0.00 0.00 82 1019.6
20260830130059 78 300 1.0 4.0 0.00 0.00 0.00 82 1019.6
20260830130000 78 317 0.0 4.0 0.00 0.00 0.00 82 1019.7
20260830125757 78 279 1.0 4.0 0.00 0.00 0.00 83 1019.7
20260830125657 78 294 2.0 4.0 0.00 0.00 0.00 83 1019.7
20260830125556 78 321 0.0 4.0 0.00 0.00 0.00 83 1019.7
20260830125458 77 316 2.0 4.0 0.00 0.00 0.00 84 1019.6
20260830125256 77 214 0.0 4.0 0.00 0.00 0.00 83 1019.7
20260830125158 77 137 4.0 4.0 0.00 0.00 0.00 84 1019.6
20260830125057 77 155 0.0 3.0 0.00 0.00 0.00 84 1019.6
20260830125000 77 239 0.0 3.0 0.00 0.00 0.00 84 1019.6
20260830124857 77 80 1.0 3.0 0.00 0.00 0.00 84 1019.7
20260830124657 77 264 1.0 3.0 0.00 0.00 0.00 85 1019.6
20260830124558 77 340 2.0 3.0 0.00 0.00 0.00 86 1019.6
20260830124458 77 319 0.0 3.0 0.00 0.00 0.00 86 1019.6
20260830124357 77 157 0.0 3.0 0.00 0.00 0.00 86 1019.5
20260830124258 76 335 0.0 3.0 0.00 0.00 0.00 86 1019.5
20260830124156 76 284 0.0 3.0 0.00 0.00 0.00 87 1019.5
20260830123959 76 323 0.0 3.0 0.00 0.00 0.00 87 1019.4
20260830123857 76 115 0.0 4.0 0.00 0.00 0.00 87 1019.4
20260830123757 76 10 2.0 4.0 0.00 0.00 0.00 88 1019.5
20260830123657 76 261 2.0 4.0 0.00 0.00 0.00 88 1019.5
20260830123458 76 172 0.0 4.0 0.00 0.00 0.00 88 1019.4
20260830123256 75 287 0.0 4.0 0.00 0.00 0.00 89 1019.4
20260830123157 75 300 2.0 4.0 0.00 0.00 0.00 89 1019.4
20260830123056 75 294 1.0 4.0 0.00 0.00 0.00 89 1019.4
20260830123000 75 278 3.0 4.0 0.00 0.00 0.00 89 1019.4
20260830122858 75 39 0.0 4.0 0.00 0.00 0.00 90 1019.4
20260830122756 75 69 0.0 4.0 0.00 0.00 0.00 90 1019.4
20260830122657 75 324 1.0 4.0 0.00 0.00 0.00 90 1019.4
20260830122556 75 239 2.0 4.0 0.00 0.00 0.00 90 1019.3
20260830122458 75 307 2.0 4.0 0.00 0.00 0.00 90 1019.3
20260830122357 75 338 2.0 4.0 0.00 0.00 0.00 91 1019.3
20260830122258 75 360 3.0 4.0 0.00 0.00 0.00 91 1019.3
20260830122157 75 124 3.0 4.0 0.00 0.00 0.00 91 1019.2
20260830122056 75 324 2.0 4.0 0.00 0.00 0.00 91 1019.2
20260830122000 74 342 1.0 4.0 0.00 0.00 0.00 91 1019.2
20260830121857 74 328 1.0 4.0 0.00 0.00 0.00 91 1019.1
20260830121756 74 17 2.0 4.0 0.00 0.00 0.00 91 1019.2
20260830121656 74 33 0.0 4.0 0.00 0.00 0.00 91 1019.1
20260830121557 74 317 0.0 4.0 0.00 0.00 0.00 91 1019.2
20260830121459 74 29 0.0 4.0 0.00 0.00 0.00 92 1019.1
20260830121357 74 45 4.0 4.0 0.00 0.00 0.00 92 1019.1
20260830121257 74 344 1.0 3.0 0.00 0.00 0.00 92 1019.0
20260830121158 74 323 2.0 3.0 0.00 0.00 0.00 92 1019.0
20260830121056 74 20 2.0 3.0 0.00 0.00 0.00 92 1019.0
20260830120657 73 352 0.0 3.0 0.00 0.00 0.00 92 1019.0
20260830120556 73 338 0.0 3.0 0.00 0.00 0.00 92 1018.9
20260830120458 73 34 2.0 3.0 0.00 0.00 0.00 92 1018.9
20260830120357 73 34 2.0 3.0 0.00 0.00 0.00 92 1018.9
20260830120257 73 43 0.0 3.0 0.00 0.00 0.00 92 1018.9
20260830120158 73 22 0.0 3.0 0.00 0.00 0.00 92 1018.9
20260830120057 73 284 0.0 3.0 0.00 0.00 0.00 92 1018.9
20260830115958 73 77 0.0 3.0 0.00 0.00 0.00 92 1018.9
20260830115856 73 122 2.0 3.0 0.00 0.00 0.00 92 1018.9
20260830115755 73 30 2.0 3.0 0.00 0.00 0.00 92 1018.8
20260830115655 73 54 1.0 3.0 0.00 0.00 0.00 92 1018.8
20260830115554 73 13 0.0 3.0 0.00 0.00 0.00 92 1018.8
20260830115458 73 47 0.0 3.0 0.00 0.00 0.00 92 1018.8
20260830115355 73 11 0.0 3.0 0.00 0.00 0.00 92 1018.8
20260830115256 73 143 0.0 3.0 0.00 0.00 0.00 92 1018.8
20260830115155 73 56 0.0 3.0 0.00 0.00 0.00 92 1018.8
20260830115055 73 56 0.0 3.0 0.00 0.00 0.00 92 1018.8
20260830114959 73 17 0.0 4.0 0.00 0.00 0.00 92 1018.8
20260830114756 73 26 0.0 4.0 0.00 0.00 0.00 92 1018.8
20260830114656 73 26 0.0 4.0 0.00 0.00 0.00 92 1018.8
20260830114555 73 15 1.0 4.0 0.00 0.00 0.00 92 1018.8
20260830114457 73 57 0.0 5.0 0.00 0.00 0.00 92 1018.8
20260830114355 73 46 0.0 5.0 0.00 0.00 0.00 92 1018.7
20260830114055 73 53 1.0 5.0 0.00 0.00 0.00 92 1018.7
20260830113958 73 89 0.0 5.0 0.00 0.00 0.00 92 1018.8
20260830113856 73 57 0.0 5.0 0.00 0.00 0.00 92 1018.7
20260830113755 73 40 0.0 5.0 0.00 0.00 0.00 92 1018.6
20260830113655 73 134 2.0 5.0 0.00 0.00 0.00 92 1018.7
20260830113556 73 76 2.0 3.0 0.00 0.00 0.00 92 1018.7
20260830113355 73 333 0.0 3.0 0.00 0.00 0.00 92 1018.7
20260830113255 73 92 2.0 3.0 0.00 0.00 0.00 92 1018.7
20260830113156 73 15 2.0 3.0 0.00 0.00 0.00 92 1018.7
20260830113056 73 34 1.0 3.0 0.00 0.00 0.00 92 1018.7
20260830112958 73 43 0.0 3.0 0.00 0.00 0.00 92 1018.7
20260830112855 73 346 0.0 3.0 0.00 0.00 0.00 92 1018.6
20260830112757 73 36 1.0 3.0 0.00 0.00 0.00 92 1018.6
20260830112655 73 64 0.0 2.0 0.00 0.00 0.00 92 1018.5
20260830112556 73 333 0.0 2.0 0.00 0.00 0.00 92 1018.7
20260830112457 73 356 0.0 2.0 0.00 0.00 0.00 92 1018.6
20260830112356 73 1 1.0 2.0 0.00 0.00 0.00 92 1018.6
20260830112256 73 338 0.0 2.0 0.00 0.00 0.00 92 1018.6
20260830112157 73 44 0.0 2.0 0.00 0.00 0.00 92 1018.6
20260830112055 73 351 2.0 2.0 0.00 0.00 0.00 92 1018.6
20260830111958 73 45 0.0 2.0 0.00 0.00 0.00 92 1018.6
20260830111856 73 18 0.0 2.0 0.00 0.00 0.00 92 1018.5
20260830111755 73 338 0.0 2.0 0.00 0.00 0.00 92 1018.6
20260830111556 73 15 2.0 2.0 0.00 0.00 0.00 92 1018.6
20260830111356 73 340 0.0 2.0 0.00 0.00 0.00 92 1018.5
20260830111156 73 349 0.0 2.0 0.00 0.00 0.00 92 1018.5
20260830111058 73 342 0.0 2.0 0.00 0.00 0.00 92 1018.5
20260830110959 73 15 0.0 2.0 0.00 0.00 0.00 92 1018.5
20260830110855 73 3 0.0 2.0 0.00 0.00 0.00 92 1018.5
20260830110756 73 29 2.0 2.0 0.00 0.00 0.00 92 1018.4
20260830110655 73 25 0.0 2.0 0.00 0.00 0.00 92 1018.4
20260830110456 73 354 0.0 2.0 0.00 0.00 0.00 91 1018.4
20260830110357 73 358 0.0 2.0 0.00 0.00 0.00 92 1018.4
20260830110255 73 20 0.0 2.0 0.00 0.00 0.00 92 1018.4
20260830110056 73 360 0.0 2.0 0.00 0.00 0.00 92 1018.4
20260830105958 73 10 0.0 2.0 0.00 0.00 0.00 92 1018.5
20260830105856 73 340 0.0 2.0 0.00 0.00 0.00 91 1018.4
20260830105755 73 360 0.0 2.0 0.00 0.00 0.00 91 1018.4
20260830105656 73 338 0.0 2.0 0.00 0.00 0.00 91 1018.3
20260830105556 73 344 1.0 2.0 0.00 0.00 0.00 91 1018.4
20260830105457 73 18 0.0 2.0 0.00 0.00 0.00 91 1018.3
20260830105357 73 18 2.0 2.0 0.00 0.00 0.00 91 1018.4
20260830105256 73 43 0.0 2.0 0.00 0.00 0.00 91 1018.3
20260830105156 73 36 0.0 2.0 0.00 0.00 0.00 91 1018.3
20260830105055 73 328 0.0 3.0 0.00 0.00 0.00 91 1018.3
20260830104856 73 25 0.0 3.0 0.00 0.00 0.00 91 1018.3
20260830104756 73 331 0.0 3.0 0.00 0.00 0.00 91 1018.2
20260830104655 73 331 0.0 3.0 0.00 0.00 0.00 91 1018.2
20260830104456 73 6 0.0 3.0 0.00 0.00 0.00 91 1018.1
20260830104354 73 50 0.0 3.0 0.00 0.00 0.00 91 1018.2
20260830104256 73 349 1.0 3.0 0.00 0.00 0.00 91 1018.1
20260830104155 73 326 0.0 3.0 0.00 0.00 0.00 91 1018.1
20260830103958 73 326 0.0 3.0 0.00 0.00 0.00 91 1018.0
20260830103856 73 6 1.0 2.0 0.00 0.00 0.00 91 1018.0
20260830103755 73 333 0.0 2.0 0.00 0.00 0.00 91 1018.0
20260830103656 73 342 0.0 2.0 0.00 0.00 0.00 91 1018.0
20260830103555 73 31 0.0 2.0 0.00 0.00 0.00 91 1018.0
20260830103456 73 58 1.0 2.0 0.00 0.00 0.00 91 1018.1
20260830103356 73 6 1.0 2.0 0.00 0.00 0.00 91 1018.1
20260830103155 73 8 2.0 3.0 0.00 0.00 0.00 91 1018.1
20260830103055 73 328 0.0 3.0 0.00 0.00 0.00 91 1018.1
20260830102958 73 356 0.0 3.0 0.00 0.00 0.00 91 1018.1
20260830102756 73 15 0.0 3.0 0.00 0.00 0.00 91 1018.1
20260830102656 73 8 0.0 3.0 0.00 0.00 0.00 91 1018.0
20260830102555 73 338 1.0 3.0 0.00 0.00 0.00 91 1018.1
20260830102456 73 330 0.0 3.0 0.00 0.00 0.00 91 1018.0
20260830102355 73 23 0.0 3.0 0.00 0.00 0.00 91 1018.0
20260830102255 73 8 0.0 3.0 0.00 0.00 0.00 91 1018.0
20260830102156 73 4 0.0 3.0 0.00 0.00 0.00 90 1018.1
20260830102056 73 353 0.0 3.0 0.00 0.00 0.00 91 1018.0
20260830101958 73 25 0.0 3.0 0.00 0.00 0.00 91 1018.0
20260830101855 73 11 1.0 3.0 0.00 0.00 0.00 90 1018.0
20260830101755 73 32 0.0 3.0 0.00 0.00 0.00 90 1018.0
20260830101655 73 6 0.0 3.0 0.00 0.00 0.00 91 1018.0
20260830101355 73 333 0.0 3.0 0.00 0.00 0.00 90 1018.0
20260830101255 73 15 0.0 3.0 0.00 0.00 0.00 90 1017.9
20260830101156 73 51 1.0 3.0 0.00 0.00 0.00 90 1018.0
20260830101055 73 314 0.0 3.0 0.00 0.00 0.00 90 1018.0
20260830100957 73 314 0.0 3.0 0.00 0.00 0.00 90 1018.1
20260830100855 73 338 0.0 3.0 0.00 0.00 0.00 90 1018.1
20260830100757 73 106 0.0 3.0 0.00 0.00 0.00 90 1018.1
20260830100655 73 17 0.0 3.0 0.00 0.00 0.00 90 1018.1
20260830100557 73 32 0.0 3.0 0.00 0.00 0.00 90 1018.1
20260830100356 73 15 0.0 3.0 0.00 0.00 0.00 90 1018.1
20260830100256 74 338 0.0 3.0 0.00 0.00 0.00 90 1018.2
20260830100156 74 29 0.0 3.0 0.00 0.00 0.00 90 1018.1
20260830095856 74 305 0.0 3.0 0.00 0.00 0.00 90 1018.1
20260830095756 74 330 0.0 3.0 0.00 0.00 0.00 90 1018.2
20260830095555 74 359 0.0 3.0 0.00 0.00 0.00 90 1018.1
20260830095459 74 281 0.0 3.0 0.00 0.00 0.00 90 1018.1
20260830095356 74 15 2.0 3.0 0.00 0.00 0.00 90 1018.2
20260830095256 74 18 0.0 3.0 0.00 0.00 0.00 90 1018.1
20260830095157 74 26 0.0 3.0 0.00 0.00 0.00 90 1018.2
20260830095057 74 6 2.0 3.0 0.00 0.00 0.00 90 1018.2
20260830094959 74 19 0.0 3.0 0.00 0.00 0.00 90 1018.1
20260830094858 74 53 1.0 3.0 0.00 0.00 0.00 90 1018.1
20260830094758 74 330 0.0 3.0 0.00 0.00 0.00 90 1018.1
20260830094556 74 338 0.0 3.0 0.00 0.00 0.00 90 1018.1
20260830094458 74 27 0.0 3.0 0.00 0.00 0.00 90 1018.0
20260830094356 74 355 0.0 4.0 0.00 0.00 0.00 90 1018.1
20260830094257 74 20 0.0 4.0 0.00 0.00 0.00 90 1018.0
20260830094156 74 20 1.0 4.0 0.00 0.00 0.00 90 1018.0
20260830094056 74 1 2.0 4.0 0.00 0.00 0.00 90 1018.0
20260830093856 74 359 0.0 4.0 0.00 0.00 0.00 90 1018.0
20260830093658 74 38 0.0 4.0 0.00 0.00 0.00 90 1017.9
20260830093556 74 8 2.0 4.0 0.00 0.00 0.00 90 1017.9
20260830093458 74 78 3.0 4.0 0.00 0.00 0.00 90 1017.9
20260830093357 74 20 0.0 4.0 0.00 0.00 0.00 90 1017.9
20260830093157 74 37 1.0 3.0 0.00 0.00 0.00 90 1017.8
20260830092959 74 15 0.0 4.0 0.00 0.00 0.00 90 1018.0
20260830092857 74 17 2.0 4.0 0.00 0.00 0.00 90 1018.0
20260830092757 74 33 0.0 4.0 0.00 0.00 0.00 90 1017.8
20260830092657 74 19 1.0 4.0 0.00 0.00 0.00 90 1017.9
20260830092458 74 15 2.0 4.0 0.00 0.00 0.00 90 1017.9
20260830092357 74 41 0.0 4.0 0.00 0.00 0.00 90 1017.9
20260830092256 74 20 0.0 4.0 0.00 0.00 0.00 90 1017.9
20260830091958 74 360 4.0 4.0 0.00 0.00 0.00 90 1018.0
20260830091857 74 40 2.0 4.0 0.00 0.00 0.00 90 1018.0
20260830091756 74 66 3.0 4.0 0.00 0.00 0.00 90 1017.9
20260830091656 74 18 0.0 4.0 0.00 0.00 0.00 90 1017.9
20260830091458 74 295 0.0 4.0 0.00 0.00 0.00 90 1017.9
20260830091258 74 8 0.0 4.0 0.00 0.00 0.00 90 1017.9
20260830091156 74 8 2.0 4.0 0.00 0.00 0.00 90 1017.9
20260830091056 74 52 0.0 4.0 0.00 0.00 0.00 90 1017.9
20260830090959 74 326 0.0 4.0 0.00 0.00 0.00 90 1017.9
20260830090857 74 52 0.0 4.0 0.00 0.00 0.00 90 1017.9
20260830090757 74 67 2.0 4.0 0.00 0.00 0.00 90 1017.9
20260830090657 74 109 0.0 4.0 0.00 0.00 0.00 90 1017.9
20260830090558 74 67 0.0 5.0 0.00 0.00 0.00 89 1017.9
20260830090458 74 96 3.0 5.0 0.00 0.00 0.00 90 1017.9
20260830090356 74 335 0.0 5.0 0.00 0.00 0.00 89 1017.9
20260830090157 74 71 3.0 5.0 0.00 0.00 0.00 89 1017.9
20260830090057 74 354 0.0 5.0 0.00 0.00 0.00 89 1017.8
20260830085958 74 37 2.0 5.0 0.00 0.00 0.00 89 1017.8
20260830085856 74 340 1.0 5.0 0.00 0.00 0.00 89 1017.9
20260830085755 74 353 0.0 5.0 0.00 0.00 0.00 89 1017.7
20260830085655 74 34 0.0 4.0 0.00 0.00 0.00 89 1017.8
20260830085555 74 18 0.0 4.0 0.00 0.00 0.00 89 1017.8
20260830085457 74 51 0.0 4.0 0.00 0.00 0.00 89 1017.8
20260830085355 74 321 1.0 4.0 0.00 0.00 0.00 89 1017.7
20260830085156 74 89 0.0 4.0 0.00 0.00 0.00 89 1017.7
20260830085056 74 345 0.0 4.0 0.00 0.00 0.00 89 1017.7
20260830084957 74 13 3.0 4.0 0.00 0.00 0.00 89 1017.8
20260830084856 74 60 0.0 4.0 0.00 0.00 0.00 89 1017.8
20260830084757 74 85 0.0 4.0 0.00 0.00 0.00 89 1017.8
20260830084655 74 26 0.0 4.0 0.00 0.00 0.00 89 1017.7
20260830084556 74 36 0.0 4.0 0.00 0.00 0.00 89 1017.7
20260830084458 74 82 4.0 4.0 0.00 0.00 0.00 89 1017.8
20260830084356 74 17 1.0 3.0 0.00 0.00 0.00 89 1017.7
20260830084257 74 37 0.0 3.0 0.00 0.00 0.00 89 1017.7
20260830084156 74 13 0.0 3.0 0.00 0.00 0.00 89 1017.7
20260830083855 74 41 0.0 3.0 0.00 0.00 0.00 89 1017.7
20260830083756 74 360 0.0 3.0 0.00 0.00 0.00 89 1017.6
20260830083656 74 15 0.0 3.0 0.00 0.00 0.00 89 1017.5
20260830083556 74 34 0.0 3.0 0.00 0.00 0.00 89 1017.5
20260830083456 74 353 0.0 3.0 0.00 0.00 0.00 89 1017.6
20260830083355 74 11 0.0 3.0 0.00 0.00 0.00 89 1017.5
20260830083255 74 326 2.0 3.0 0.00 0.00 0.00 89 1017.6
20260830083156 74 338 0.0 3.0 0.00 0.00 0.00 89 1017.6
20260830083056 74 356 2.0 3.0 0.00 0.00 0.00 89 1017.7
20260830082957 74 335 2.0 4.0 0.00 0.00 0.00 89 1017.6
20260830082854 74 351 0.0 4.0 0.00 0.00 0.00 89 1017.7
20260830082755 74 335 0.0 4.0 0.00 0.00 0.00 89 1017.7
20260830082655 74 53 0.0 4.0 0.00 0.00 0.00 89 1017.6
20260830082556 74 342 1.0 4.0 0.00 0.00 0.00 89 1017.7
20260830082457 75 321 0.0 4.0 0.00 0.00 0.00 89 1017.7
20260830082355 75 36 0.0 4.0 0.00 0.00 0.00 89 1017.6
20260830082155 75 18 3.0 4.0 0.00 0.00 0.00 89 1017.6
20260830082056 75 30 2.0 4.0 0.00 0.00 0.00 89 1017.6
20260830081958 75 328 0.0 4.0 0.00 0.00 0.00 89 1017.6
20260830081856 75 337 2.0 4.0 0.00 0.00 0.00 89 1017.7
20260830081755 75 319 0.0 4.0 0.00 0.00 0.00 89 1017.7
20260830081656 75 25 1.0 4.0 0.00 0.00 0.00 89 1017.6
20260830081555 75 310 0.0 4.0 0.00 0.00 0.00 89 1017.6
20260830081357 75 59 0.0 4.0 0.00 0.00 0.00 89 1017.5
20260830081256 75 323 1.0 4.0 0.00 0.00 0.00 89 1017.5
20260830081156 75 12 0.0 4.0 0.00 0.00 0.00 89 1017.6
20260830081055 75 305 2.0 4.0 0.00 0.00 0.00 89 1017.6
20260830080958 75 358 2.0 4.0 0.00 0.00 0.00 89 1017.6
20260830080856 75 27 0.0 4.0 0.00 0.00 0.00 89 1017.5
20260830080756 75 335 1.0 4.0 0.00 0.00 0.00 89 1017.5
20260830080555 75 347 1.0 4.0 0.00 0.00 0.00 89 1017.5
20260830080457 75 349 2.0 3.0 0.00 0.00 0.00 89 1017.6
20260830080356 75 330 1.0 3.0 0.00 0.00 0.00 89 1017.5
20260830080255 75 20 2.0 3.0 0.00 0.00 0.00 89 1017.6
20260830080056 75 359 3.0 3.0 0.00 0.00 0.00 89 1017.7
20260830075908 75 323 0.0 4.0 0.00 0.00 0.00 89 1017.7
20260830075656 75 326 0.0 4.0 0.00 0.00 0.00 89 1017.7
20260830075457 75 344 0.0 4.0 0.00 0.00 0.00 89 1017.8
20260830075256 75 18 0.0 4.0 0.00 0.00 0.00 89 1017.7
20260830075156 75 54 0.0 4.0 0.00 0.00 0.00 89 1017.8
20260830075055 75 4 1.0 4.0 0.00 0.00 0.00 89 1017.8
20260830074958 75 354 2.0 4.0 0.00 0.00 0.00 89 1017.8
20260830074856 75 54 0.0 4.0 0.00 0.00 0.00 89 1017.8
20260830074757 75 12 3.0 3.0 0.00 0.00 0.00 89 1017.8
20260830074655 75 10 1.0 3.0 0.00 0.00 0.00 89 1017.7
20260830074556 75 351 0.0 3.0 0.00 0.00 0.00 89 1017.8
20260830074356 75 358 1.0 3.0 0.00 0.00 0.00 89 1017.7
20260830074256 75 331 1.0 3.0 0.00 0.00 0.00 89 1017.7
20260830074155 75 49 1.0 3.0 0.00 0.00 0.00 89 1017.8
20260830074055 75 354 0.0 3.0 0.00 0.00 0.00 89 1017.8
20260830073959 75 324 2.0 3.0 0.00 0.00 0.00 89 1017.7
20260830073855 75 15 0.0 3.0 0.00 0.00 0.00 89 1017.8
20260830073755 75 349 0.0 3.0 0.00 0.00 0.00 89 1017.8
20260830073555 75 321 0.0 3.0 0.00 0.00 0.00 89 1017.8
20260830073356 75 15 0.0 3.0 0.00 0.00 0.00 89 1017.9
20260830073255 75 314 1.0 3.0 0.00 0.00 0.00 89 1017.9
20260830073155 75 8 0.0 3.0 0.00 0.00 0.00 89 1017.9
20260830073056 75 326 2.0 3.0 0.00 0.00 0.00 89 1017.9
20260830072959 74 8 2.0 3.0 0.00 0.00 0.00 89 1017.9
20260830072855 74 323 0.0 3.0 0.00 0.00 0.00 89 1017.9
20260830072656 74 328 2.0 3.0 0.00 0.00 0.00 89 1017.9
20260830072556 74 321 0.0 3.0 0.00 0.00 0.00 89 1017.9
20260830072456 74 323 0.0 2.0 0.00 0.00 0.00 89 1017.9
20260830072356 74 328 0.0 2.0 0.00 0.00 0.00 89 1017.9
20260830072255 74 300 1.0 2.0 0.00 0.00 0.00 89 1017.9
20260830072156 74 330 2.0 2.0 0.00 0.00 0.00 89 1018.0
20260830072055 74 360 0.0 2.0 0.00 0.00 0.00 89 1017.9
20260830071959 74 8 0.0 2.0 0.00 0.00 0.00 89 1017.9
20260830071855 74 335 0.0 2.0 0.00 0.00 0.00 89 1017.9
20260830071656 74 345 0.0 2.0 0.00 0.00 0.00 89 1018.0
20260830071457 74 328 0.0 1.0 0.00 0.00 0.00 89 1017.9
20260830071356 74 360 0.0 1.0 0.00 0.00 0.00 89 1017.9
20260830071256 74 340 0.0 1.0 0.00 0.00 0.00 89 1017.8
20260830071156 74 6 0.0 1.0 0.00 0.00 0.00 89 1017.8
20260830071056 74 347 0.0 1.0 0.00 0.00 0.00 89 1017.8
20260830070959 74 338 0.0 1.0 0.00 0.00 0.00 89 1017.8
20260830070855 74 18 0.0 1.0 0.00 0.00 0.00 89 1017.8
20260830070757 74 356 0.0 1.0 0.00 0.00 0.00 89 1017.8
20260830070556 74 13 0.0 1.0 0.00 0.00 0.00 89 1017.8
20260830070356 74 18 0.0 1.0 0.00 0.00 0.00 89 1017.8
20260830070254 74 107 0.0 1.0 0.00 0.00 0.00 89 1017.8
20260830070156 74 107 0.0 1.0 0.00 0.00 0.00 89 1017.8
20260830070055 74 107 0.0 1.0 0.00 0.00 0.00 89 1017.9
20260830065959 74 32 0.0 1.0 0.00 0.00 0.00 89 1017.8
20260830065855 74 6 0.0 1.0 0.00 0.00 0.00 89 1017.8
20260830065757 74 26 0.0 1.0 0.00 0.00 0.00 89 1017.8
20260830065655 74 26 0.0 2.0 0.00 0.00 0.00 89 1017.7
20260830065555 74 319 0.0 2.0 0.00 0.00 0.00 89 1017.7
20260830065457 74 319 0.0 2.0 0.00 0.00 0.00 89 1017.7
20260830065255 74 319 0.0 2.0 0.00 0.00 0.00 89 1017.6
20260830065156 75 319 0.0 2.0 0.00 0.00 0.00 88 1017.7
20260830065055 75 326 0.0 2.0 0.00 0.00 0.00 88 1017.7
20260830064958 75 326 0.0 2.0 0.00 0.00 0.00 88 1017.7
20260830064854 75 326 0.0 2.0 0.00 0.00 0.00 88 1017.7
20260830064756 75 331 1.0 2.0 0.00 0.00 0.00 88 1017.6
20260830064655 75 316 0.0 2.0 0.00 0.00 0.00 88 1017.6
20260830064555 75 305 0.0 2.0 0.00 0.00 0.00 88 1017.7
20260830064457 75 328 1.0 3.0 0.00 0.00 0.00 88 1017.6
20260830064256 75 342 1.0 3.0 0.00 0.00 0.00 88 1017.7
20260830064157 75 354 1.0 3.0 0.00 0.00 0.00 88 1017.8
20260830064056 75 347 0.0 3.0 0.00 0.00 0.00 88 1017.8
20260830063856 75 352 0.0 3.0 0.00 0.00 0.00 88 1017.7
20260830063755 75 289 0.0 3.0 0.00 0.00 0.00 88 1017.7
20260830063655 75 328 2.0 2.0 0.00 0.00 0.00 88 1017.7
20260830063555 75 337 1.0 2.0 0.00 0.00 0.00 88 1017.7
20260830063357 75 324 2.0 2.0 0.00 0.00 0.00 88 1017.7
20260830063256 75 335 2.0 2.0 0.00 0.00 0.00 88 1017.8
20260830062959 75 335 0.0 2.0 0.00 0.00 0.00 88 1017.9
20260830062857 75 344 0.0 2.0 0.00 0.00 0.00 88 1017.8
20260830062756 75 333 0.0 2.0 0.00 0.00 0.00 88 1017.8
20260830062655 75 330 2.0 2.0 0.00 0.00 0.00 88 1017.8
20260830062555 75 347 0.0 2.0 0.00 0.00 0.00 88 1017.8
20260830062456 75 1 0.0 2.0 0.00 0.00 0.00 88 1017.8
20260830062354 75 338 0.0 1.0 0.00 0.00 0.00 88 1017.8
20260830062255 75 338 0.0 2.0 0.00 0.00 0.00 88 1017.9
20260830062156 75 317 0.0 2.0 0.00 0.00 0.00 88 1017.9
20260830062056 75 326 0.0 2.0 0.00 0.00 0.00 88 1017.8
20260830061959 75 326 0.0 2.0 0.00 0.00 0.00 88 1017.8
20260830061756 75 342 1.0 3.0 0.00 0.00 0.00 88 1017.8
20260830061457 75 349 0.0 3.0 0.00 0.00 0.00 88 1017.9
20260830061354 75 330 0.0 3.0 0.00 0.00 0.00 88 1017.9
20260830061256 75 336 0.0 3.0 0.00 0.00 0.00 88 1017.9
20260830061155 75 309 1.0 3.0 0.00 0.00 0.00 88 1017.9
20260830061055 75 329 2.0 3.0 0.00 0.00 0.00 88 1018.0
20260830060958 75 326 2.0 3.0 0.00 0.00 0.00 87 1018.0
20260830060755 75 319 2.0 3.0 0.00 0.00 0.00 87 1018.0
20260830060655 75 328 2.0 3.0 0.00 0.00 0.00 87 1018.1
20260830060557 75 331 2.0 3.0 0.00 0.00 0.00 87 1018.2
20260830060456 75 309 1.0 3.0 0.00 0.00 0.00 87 1018.2
20260830060355 75 326 1.0 3.0 0.00 0.00 0.00 87 1018.2
20260830060255 75 328 1.0 3.0 0.00 0.00 0.00 87 1018.3
20260830060156 75 328 2.0 3.0 0.00 0.00 0.00 87 1018.2
20260830060055 75 342 0.0 3.0 0.00 0.00 0.00 87 1018.1
20260830060002 75 338 1.0 3.0 0.00 0.00 0.00 87 1018.1
20260830055859 75 326 2.0 3.0 0.00 0.00 0.00 87 1018.2
20260830055759 76 326 2.0 3.0 0.00 0.00 0.00 87 1018.2
20260830055659 76 324 3.0 3.0 0.00 0.00 0.00 87 1018.0
20260830055500 76 316 2.0 3.0 0.00 0.00 0.00 87 1018.1
20260830055359 76 305 1.0 3.0 0.00 0.00 0.00 87 1018.2
20260830055159 76 356 1.0 3.0 0.00 0.00 0.00 87 1018.1
20260830055059 76 312 2.0 3.0 0.00 0.00 0.00 87 1018.1
20260830054859 76 323 2.0 3.0 0.00 0.00 0.00 87 1018.1
20260830054659 76 356 1.0 3.0 0.00 0.00 0.00 87 1018.1
20260830054558 76 335 3.0 3.0 0.00 0.00 0.00 87 1018.1
20260830054358 76 337 2.0 3.0 0.00 0.00 0.00 87 1018.2
20260830054259 76 326 2.0 3.0 0.00 0.00 0.00 87 1018.2
20260830054159 76 335 2.0 3.0 0.00 0.00 0.00 87 1018.3
20260830054004 76 323 2.0 3.0 0.00 0.00 0.00 87 1018.3
20260830053558 76 326 2.0 3.0 0.00 0.00 0.00 87 1018.5
20260830053503 76 3 0.0 3.0 0.00 0.00 0.00 87 1018.5
20260830053358 76 340 0.0 3.0 0.00 0.00 0.00 87 1018.6
20260830053159 76 333 2.0 3.0 0.00 0.00 0.00 87 1018.6
20260830053058 76 326 1.0 3.0 0.00 0.00 0.00 87 1018.6
20260830053004 76 349 2.0 3.0 0.00 0.00 0.00 86 1018.6
20260830052859 76 354 1.0 3.0 0.00 0.00 0.00 86 1018.6
20260830052759 76 342 0.0 3.0 0.00 0.00 0.00 86 1018.6
20260830052659 76 321 0.0 3.0 0.00 0.00 0.00 86 1018.6
20260830052559 76 342 2.0 3.0 0.00 0.00 0.00 86 1018.6
20260830052500 76 347 1.0 3.0 0.00 0.00 0.00 86 1018.6
20260830052359 76 345 1.0 2.0 0.00 0.00 0.00 86 1018.7
20260830052259 76 326 1.0 2.0 0.00 0.00 0.00 86 1018.7
20260830051858 76 340 2.0 2.0 0.00 0.00 0.00 86 1018.8
20260830051800 76 356 0.0 2.0 0.00 0.00 0.00 86 1018.8
20260830051659 76 4 0.0 2.0 0.00 0.00 0.00 86 1018.8
20260830051558 76 352 1.0 2.0 0.00 0.00 0.00 86 1018.8
20260830051459 76 3 0.0 2.0 0.00 0.00 0.00 86 1018.9
20260830051358 76 360 2.0 3.0 0.00 0.00 0.00 86 1018.8
20260830051159 76 6 0.0 3.0 0.00 0.00 0.00 86 1018.9
20260830051059 76 342 0.0 3.0 0.00 0.00 0.00 86 1018.9
20260830051003 76 324 2.0 3.0 0.00 0.00 0.00 86 1018.9
20260830050859 76 345 1.0 3.0 0.00 0.00 0.00 86 1018.9
20260830050758 76 321 1.0 3.0 0.00 0.00 0.00 86 1018.9
20260830050658 76 328 2.0 3.0 0.00 0.00 0.00 86 1018.9
20260830050558 76 347 0.0 3.0 0.00 0.00 0.00 86 1019.0
20260830050500 76 335 2.0 3.0 0.00 0.00 0.00 86 1019.0
20260830050359 76 354 1.0 3.0 0.00 0.00 0.00 86 1019.0
20260830050259 76 344 1.0 3.0 0.00 0.00 0.00 86 1019.0
20260830050159 76 349 0.0 3.0 0.00 0.00 0.00 86 1019.0
20260830050058 76 10 0.0 3.0 0.00 0.00 0.00 86 1019.0
20260830050003 76 360 0.0 3.0 0.00 0.00 0.00 86 1018.9
20260830045759 76 347 1.0 3.0 0.00 0.00 0.00 86 1018.9
20260830045659 76 13 0.0 3.0 0.00 0.00 0.00 85 1018.9
20260830045558 76 56 0.0 3.0 0.00 0.00 0.00 85 1018.9
20260830045500 76 5 2.0 3.0 0.00 0.00 0.00 86 1018.9
20260830045359 76 359 0.0 3.0 0.00 0.00 0.00 85 1018.9
20260830045158 76 340 0.0 3.0 0.00 0.00 0.00 85 1018.9
20260830045058 76 30 0.0 3.0 0.00 0.00 0.00 85 1018.9
20260830045004 76 4 0.0 3.0 0.00 0.00 0.00 85 1018.9
20260830044859 76 31 2.0 3.0 0.00 0.00 0.00 85 1019.0
20260830044758 76 8 2.0 3.0 0.00 0.00 0.00 85 1019.0
20260830044659 76 27 0.0 3.0 0.00 0.00 0.00 85 1019.1
20260830044559 76 24 2.0 3.0 0.00 0.00 0.00 85 1019.1
20260830044500 76 345 1.0 3.0 0.00 0.00 0.00 85 1019.1
20260830044359 76 321 0.0 3.0 0.00 0.00 0.00 85 1019.1
20260830044259 76 55 1.0 3.0 0.00 0.00 0.00 85 1019.1
20260830044159 77 321 0.0 3.0 0.00 0.00 0.00 85 1019.2
20260830044058 76 354 2.0 3.0 0.00 0.00 0.00 85 1019.1
20260830043859 76 298 0.0 3.0 0.00 0.00 0.00 85 1019.2
20260830043758 77 289 0.0 3.0 0.00 0.00 0.00 85 1019.2
20260830043659 76 326 0.0 3.0 0.00 0.00 0.00 85 1019.2
20260830043500 76 314 0.0 3.0 0.00 0.00 0.00 85 1019.2
20260830043359 77 345 1.0 3.0 0.00 0.00 0.00 85 1019.2
20260830043159 77 27 0.0 3.0 0.00 0.00 0.00 85 1019.2
20260830043058 76 94 0.0 3.0 0.00 0.00 0.00 85 1019.1
20260830043004 77 31 0.0 4.0 0.00 0.00 0.00 85 1019.2
20260830042859 77 345 0.0 4.0 0.00 0.00 0.00 85 1019.1
20260830042759 77 293 0.0 4.0 0.00 0.00 0.00 85 1019.1
20260830042658 77 129 0.0 4.0 0.00 0.00 0.00 85 1019.2
20260830042559 77 305 0.0 4.0 0.00 0.00 0.00 85 1019.2
20260830042358 77 335 0.0 4.0 0.00 0.00 0.00 85 1019.2
20260830042259 77 307 0.0 4.0 0.00 0.00 0.00 85 1019.3
20260830042158 77 338 1.0 4.0 0.00 0.00 0.00 85 1019.4
20260830042059 77 312 0.0 4.0 0.00 0.00 0.00 85 1019.3
20260830042003 77 317 1.0 3.0 0.00 0.00 0.00 85 1019.3
20260830041858 77 319 0.0 3.0 0.00 0.00 0.00 86 1019.4
20260830041659 77 22 3.0 3.0 0.00 0.00 0.00 86 1019.4
20260830041559 77 303 0.0 3.0 0.00 0.00 0.00 86 1019.3
20260830041504 77 340 0.0 3.0 0.00 0.00 0.00 86 1019.4
20260830041358 76 286 0.0 3.0 0.00 0.00 0.00 86 1019.3
20260830041300 77 328 0.0 2.0 0.00 0.00 0.00 86 1019.3
20260830041159 76 328 0.0 2.0 0.00 0.00 0.00 86 1019.3
20260830041100 76 347 0.0 2.0 0.00 0.00 0.00 86 1019.2
20260830041004 77 345 2.0 2.0 0.00 0.00 0.00 86 1019.3
20260830040859 76 314 0.0 2.0 0.00 0.00 0.00 86 1019.3
20260830040559 77 328 2.0 3.0 0.00 0.00 0.00 86 1019.2
20260830040504 76 309 0.0 3.0 0.00 0.00 0.00 86 1019.1
20260830040359 77 255 1.0 3.0 0.00 0.00 0.00 86 1019.1
20260830040258 76 311 0.0 3.0 0.00 0.00 0.00 86 1019.1
20260830040159 77 335 0.0 3.0 0.00 0.00 0.00 86 1019.1
20260830040059 76 328 1.0 3.0 0.00 0.00 0.00 86 1019.1
20260830040005 76 303 2.0 3.0 0.00 0.00 0.00 86 1019.1
20260830035859 77 307 0.0 3.0 0.00 0.00 0.00 86 1019.1
20260830035759 77 309 0.0 3.0 0.00 0.00 0.00 86 1019.1
20260830035659 77 49 0.0 3.0 0.00 0.00 0.00 86 1019.2
20260830035600 77 337 1.0 3.0 0.00 0.00 0.00 86 1019.2
20260830035502 77 349 0.0 3.0 0.00 0.00 0.00 86 1019.2
20260830035400 77 333 0.0 3.0 0.00 0.00 0.00 86 1019.2
20260830035259 77 342 2.0 3.0 0.00 0.00 0.00 86 1019.2
20260830035100 77 335 1.0 3.0 0.00 0.00 0.00 86 1019.2
20260830035004 77 344 1.0 3.0 0.00 0.00 0.00 86 1019.3
20260830034859 77 1 3.0 3.0 0.00 0.00 0.00 86 1019.4
20260830034800 77 338 0.0 3.0 0.00 0.00 0.00 86 1019.2
20260830034502 77 328 1.0 2.0 0.00 0.00 0.00 85 1019.3
20260830034400 77 326 0.0 2.0 0.00 0.00 0.00 85 1019.3
20260830034201 77 335 2.0 2.0 0.00 0.00 0.00 85 1019.3
20260830034059 77 360 0.0 2.0 0.00 0.00 0.00 85 1019.3
20260830034004 77 336 0.0 2.0 0.00 0.00 0.00 85 1019.4
20260830033859 77 337 0.0 2.0 0.00 0.00 0.00 85 1019.4
20260830033759 77 329 0.0 2.0 0.00 0.00 0.00 85 1019.4
20260830033701 77 344 2.0 2.0 0.00 0.00 0.00 85 1019.4
20260830033559 77 319 0.0 2.0 0.00 0.00 0.00 85 1019.5
20260830033259 77 311 0.0 2.0 0.00 0.00 0.00 85 1019.3
20260830033201 77 295 0.0 2.0 0.00 0.00 0.00 85 1019.2
20260830033100 77 328 0.0 2.0 0.00 0.00 0.00 85 1019.3
20260830033005 77 328 0.0 2.0 0.00 0.00 0.00 85 1019.2
20260830032900 77 335 0.0 2.0 0.00 0.00 0.00 85 1019.3
20260830032759 77 307 0.0 2.0 0.00 0.00 0.00 85 1019.2
20260830032559 77 344 0.0 2.0 0.00 0.00 0.00 85 1019.3
20260830032501 77 328 1.0 2.0 0.00 0.00 0.00 85 1019.2
20260830032359 77 321 1.0 2.0 0.00 0.00 0.00 85 1019.3
20260830032200 77 329 2.0 3.0 0.00 0.00 0.00 85 1019.2
20260830032100 77 319 0.0 3.0 0.00 0.00 0.00 85 1019.3
20260830032003 77 338 0.0 3.0 0.00 0.00 0.00 85 1019.3
20260830031859 77 324 0.0 3.0 0.00 0.00 0.00 85 1019.4
20260830031759 77 342 0.0 3.0 0.00 0.00 0.00 84 1019.4
20260830031659 77 338 2.0 3.0 0.00 0.00 0.00 84 1019.3
20260830031601 77 360 2.0 3.0 0.00 0.00 0.00 84 1019.4
20260830031500 78 331 2.0 3.0 0.00 0.00 0.00 84 1019.4
20260830031401 78 356 1.0 3.0 0.00 0.00 0.00 84 1019.3
20260830031259 78 328 2.0 3.0 0.00 0.00 0.00 84 1019.3
20260830031202 78 11 0.0 3.0 0.00 0.00 0.00 84 1019.3
20260830031100 78 23 1.0 3.0 0.00 0.00 0.00 84 1019.4
20260830031004 78 356 0.0 3.0 0.00 0.00 0.00 84 1019.3
20260830030900 78 6 0.0 3.0 0.00 0.00 0.00 84 1019.2
20260830030800 78 1 1.0 3.0 0.00 0.00 0.00 84 1019.2
20260830030603 78 338 0.0 4.0 0.00 0.00 0.00 84 1019.2
20260830030504 78 328 2.0 4.0 0.00 0.00 0.00 84 1019.2
20260830030359 78 328 0.0 4.0 0.00 0.00 0.00 84 1019.2
20260830030159 78 333 0.0 4.0 0.00 0.00 0.00 84 1019.2
20260830030100 78 6 1.0 4.0 0.00 0.00 0.00 84 1019.2
20260830030005 78 331 0.0 4.0 0.00 0.00 0.00 84 1019.2
20260830025859 78 356 0.0 4.0 0.00 0.00 0.00 84 1019.2
20260830025659 78 300 0.0 4.0 0.00 0.00 0.00 84 1019.3
20260830025559 78 6 0.0 4.0 0.00 0.00 0.00 84 1019.4
20260830025504 78 58 1.0 4.0 0.00 0.00 0.00 84 1019.3
20260830025401 78 36 2.0 4.0 0.00 0.00 0.00 84 1019.4
20260830025300 78 70 3.0 4.0 0.00 0.00 0.00 84 1019.3
20260830025100 78 20 1.0 4.0 0.00 0.00 0.00 83 1019.3
20260830024901 78 311 0.0 4.0 0.00 0.00 0.00 84 1019.3
20260830024800 78 342 2.0 4.0 0.00 0.00 0.00 83 1019.3
20260830024659 78 360 3.0 4.0 0.00 0.00 0.00 83 1019.4
20260830024559 78 335 0.0 4.0 0.00 0.00 0.00 83 1019.4
20260830024504 78 30 3.0 4.0 0.00 0.00 0.00 83 1019.4
20260830024400 78 278 1.0 3.0 0.00 0.00 0.00 83 1019.3
20260830024300 78 342 1.0 3.0 0.00 0.00 0.00 83 1019.3
20260830024159 78 33 0.0 3.0 0.00 0.00 0.00 83 1019.4
20260830024059 78 340 2.0 3.0 0.00 0.00 0.00 83 1019.4
20260830024004 78 38 0.0 3.0 0.00 0.00 0.00 83 1019.4
20260830023859 78 331 2.0 3.0 0.00 0.00 0.00 83 1019.3
20260830023759 78 48 0.0 3.0 0.00 0.00 0.00 83 1019.3
20260830023700 78 64 2.0 3.0 0.00 0.00 0.00 83 1019.3
20260830023603 78 342 2.0 3.0 0.00 0.00 0.00 83 1019.4
20260830023503 78 13 0.0 3.0 0.00 0.00 0.00 83 1019.2
20260830023400 78 319 2.0 3.0 0.00 0.00 0.00 83 1019.3
20260830023300 78 58 0.0 3.0 0.00 0.00 0.00 83 1019.2
20260830023159 78 349 1.0 3.0 0.00 0.00 0.00 83 1019.3
20260830023101 78 338 2.0 3.0 0.00 0.00 0.00 83 1019.2
20260830023005 78 335 3.0 3.0 0.00 0.00 0.00 83 1019.3
20260830022859 78 295 0.0 3.0 0.00 0.00 0.00 83 1019.2
20260830022800 78 323 0.0 3.0 0.00 0.00 0.00 83 1019.2
20260830022659 78 1 3.0 3.0 0.00 0.00 0.00 83 1019.1
20260830022600 78 342 0.0 3.0 0.00 0.00 0.00 83 1019.3
20260830022503 78 340 2.0 3.0 0.00 0.00 0.00 83 1019.2
20260830022259 78 328 2.0 3.0 0.00 0.00 0.00 83 1019.1
20260830022159 78 326 0.0 3.0 0.00 0.00 0.00 83 1019.1
20260830022005 78 319 2.0 3.0 0.00 0.00 0.00 83 1019.1
20260830021902 78 331 2.0 3.0 0.00 0.00 0.00 83 1019.1
20260830021801 78 24 3.0 3.0 0.00 0.00 0.00 83 1019.1
20260830021700 78 331 2.0 3.0 0.00 0.00 0.00 83 1019.1
20260830021602 78 333 2.0 3.0 0.00 0.00 0.00 83 1019.1
20260830021401 78 360 1.0 3.0 0.00 0.00 0.00 83 1019.0
20260830021303 78 326 2.0 3.0 0.00 0.00 0.00 83 1019.0
20260830021201 78 323 1.0 3.0 0.00 0.00 0.00 83 1019.0
20260830021059 78 349 0.0 3.0 0.00 0.00 0.00 83 1018.9
20260830021005 78 354 0.0 3.0 0.00 0.00 0.00 83 1018.9
20260830020705 78 342 3.0 3.0 0.00 0.00 0.00 83 1018.9
20260830020559 78 344 1.0 3.0 0.00 0.00 0.00 83 1018.8
20260830020504 78 31 2.0 3.0 0.00 0.00 0.00 83 1018.9
20260830020400 78 347 0.0 3.0 0.00 0.00 0.00 83 1018.8
20260830020301 78 324 0.0 3.0 0.00 0.00 0.00 83 1018.9
20260830020200 78 324 0.0 3.0 0.00 0.00 0.00 83 1018.9
20260830020006 78 344 1.0 3.0 0.00 0.00 0.00 82 1018.8
20260830015900 78 321 0.0 3.0 0.00 0.00 0.00 82 1018.8
20260830015800 78 338 3.0 3.0 0.00 0.00 0.00 82 1018.8
20260830015559 78 324 2.0 3.0 0.00 0.00 0.00 82 1018.7
20260830015400 78 331 0.0 3.0 0.00 0.00 0.00 82 1018.6
20260830015058 78 316 2.0 3.0 0.00 0.00 0.00 82 1018.6
20260830015005 78 319 2.0 3.0 0.00 0.00 0.00 82 1018.6
20260830014901 78 340 2.0 3.0 0.00 0.00 0.00 82 1018.6
20260830014758 78 326 0.0 2.0 0.00 0.00 0.00 82 1018.7
20260830014658 78 319 0.0 2.0 0.00 0.00 0.00 82 1018.6
20260830014609 78 302 0.0 2.0 0.00 0.00 0.00 82 1018.6
20260830014501 78 333 0.0 2.0 0.00 0.00 0.00 82 1018.7
20260830014257 78 324 1.0 2.0 0.00 0.00 0.00 82 1018.5
20260830014158 78 336 0.0 2.0 0.00 0.00 0.00 82 1018.5
20260830014058 78 324 0.0 2.0 0.00 0.00 0.00 82 1018.5
20260830014004 78 319 0.0 2.0 0.00 0.00 0.00 82 1018.4
20260830013759 79 319 0.0 2.0 0.00 0.00 0.00 81 1018.4
20260830013558 79 304 0.0 2.0 0.00 0.00 0.00 81 1018.3
20260830013501 79 304 0.0 2.0 0.00 0.00 0.00 81 1018.3
20260830013402 79 323 0.0 2.0 0.00 0.00 0.00 81 1018.4
20260830013259 79 323 0.0 3.0 0.00 0.00 0.00 81 1018.3
20260830013202 79 354 1.0 3.0 0.00 0.00 0.00 81 1018.3
20260830012859 79 328 1.0 3.0 0.00 0.00 0.00 81 1018.1
20260830012659 79 328 0.0 3.0 0.00 0.00 0.00 81 1018.1
20260830012559 79 307 0.0 3.0 0.00 0.00 0.00 81 1018.1
20260830012459 79 323 0.0 3.0 0.00 0.00 0.00 81 1018.1
20260830012358 79 6 0.0 3.0 0.00 0.00 0.00 81 1018.0
20260830012306 79 331 1.0 3.0 0.00 0.00 0.00 81 1018.0
20260830011859 79 324 0.0 3.0 0.00 0.00 0.00 81 1018.2
20260830011757 79 316 0.0 3.0 0.00 0.00 0.00 81 1018.1
20260830011700 79 303 0.0 3.0 0.00 0.00 0.00 81 1018.2
20260830011558 79 335 0.0 3.0 0.00 0.00 0.00 81 1018.2
20260830011500 79 314 0.0 3.0 0.00 0.00 0.00 81 1018.2
20260830011358 79 329 0.0 3.0 0.00 0.00 0.00 81 1018.1